IT9CNT Weather Reports


time (UTC)temp
F
wind
direction
speed
knots
gust
knots
rain 1hr
in
rain 24hr
in
rain mn
in
humidity
%
barometer
mb
20260508075503 67 271 3.5 7.0 0.00 0.00 0.00 72 1009.3
20260508075404 67 269 3.5 7.0 0.00 0.00 0.00 72 1009.2
20260508075308 66 258 3.5 7.0 0.00 0.00 0.00 72 1009.1
20260508075203 66 247 2.6 7.0 0.00 0.00 0.00 72 1009.3
20260508075103 67 235 2.6 7.0 0.00 0.00 0.00 72 1009.1
20260508075003 67 226 2.6 7.0 0.00 0.00 0.00 72 1009.2
20260508074903 68 237 2.6 3.5 0.00 0.00 0.00 71 1009.3
20260508074803 68 256 2.6 5.2 0.00 0.00 0.00 71 1009.2
20260508074703 68 258 2.6 5.2 0.00 0.00 0.00 71 1009.2
20260508074603 68 269 2.6 5.2 0.00 0.00 0.00 70 1009.4
20260508074503 68 264 2.6 5.2 0.00 0.00 0.00 70 1009.3
20260508074403 67 269 2.6 5.2 0.00 0.00 0.00 70 1009.1
20260508074303 67 273 2.6 5.2 0.00 0.00 0.00 71 1009.3
20260508074203 67 269 2.6 5.2 0.00 0.00 0.00 71 1009.4
20260508074103 66 277 2.6 5.2 0.00 0.00 0.00 71 1009.3
20260508074003 66 288 2.6 5.2 0.00 0.00 0.00 71 1009.3
20260508073903 66 281 2.6 5.2 0.00 0.00 0.00 71 1009.3
20260508073803 67 271 2.6 5.2 0.00 0.00 0.00 70 1009.2
20260508073703 67 264 3.5 6.1 0.00 0.00 0.00 70 1009.2
20260508073603 67 261 3.5 6.1 0.00 0.00 0.00 70 1009.3
20260508073503 67 259 3.5 6.1 0.00 0.00 0.00 70 1009.2
20260508073403 67 257 3.5 6.1 0.00 0.00 0.00 70 1009.3
20260508073303 66 254 3.5 6.1 0.00 0.00 0.00 70 1009.4
20260508073203 66 260 3.5 6.1 0.00 0.00 0.00 70 1009.2
20260508073103 66 260 3.5 6.1 0.00 0.00 0.00 70 1009.3
20260508073003 66 260 3.5 6.1 0.00 0.00 0.00 70 1009.4
20260508072903 66 266 3.5 6.1 0.00 0.00 0.00 71 1009.4
20260508072803 65 266 3.5 6.1 0.00 0.00 0.00 71 1009.5
20260508072703 65 268 3.5 6.1 0.00 0.00 0.00 71 1009.4
20260508072603 65 271 3.5 6.1 0.00 0.00 0.00 71 1009.5
20260508072503 66 275 3.5 6.1 0.00 0.00 0.00 70 1009.4
20260508072403 67 275 3.5 6.1 0.00 0.00 0.00 70 1009.4
20260508072307 66 277 3.5 6.1 0.00 0.00 0.00 70 1009.5
20260508072203 65 275 3.5 6.1 0.00 0.00 0.00 70 1009.4
20260508072103 65 273 3.5 6.1 0.00 0.00 0.00 70 1009.4
20260508072003 65 265 2.6 6.1 0.00 0.00 0.00 70 1009.4
20260508071903 65 260 2.6 6.1 0.00 0.00 0.00 70 1009.5
20260508071803 65 255 2.6 6.1 0.00 0.00 0.00 69 1009.2
20260508071703 65 249 2.6 5.2 0.00 0.00 0.00 69 1009.4
20260508071603 66 242 2.6 5.2 0.00 0.00 0.00 69 1009.5
20260508071503 66 235 1.7 5.2 0.00 0.00 0.00 69 1009.3
20260508071403 65 237 1.7 5.2 0.00 0.00 0.00 69 1009.3
20260508071303 66 232 1.7 5.2 0.00 0.00 0.00 68 1009.3
20260508071203 66 226 1.7 5.2 0.00 0.00 0.00 68 1009.2
20260508071103 65 224 1.7 5.2 0.00 0.00 0.00 68 1009.1
20260508071003 65 221 1.7 5.2 0.00 0.00 0.00 68 1009.2
20260508070903 65 219 1.7 5.2 0.00 0.00 0.00 67 1009.2
20260508070803 65 214 1.7 5.2 0.00 0.00 0.00 67 1009.3
20260508070703 66 209 1.7 3.5 0.00 0.00 0.00 67 1009.1
20260508070603 66 210 1.7 3.5 0.00 0.00 0.00 67 1009.1
20260508070503 65 212 1.7 3.5 0.00 0.00 0.00 67 1009.1
20260508070403 65 212 1.7 3.5 0.00 0.00 0.00 67 1008.9
20260508070303 65 216 1.7 3.5 0.00 0.00 0.00 66 1009.0
20260508070203 65 231 1.7 3.5 0.00 0.00 0.00 66 1009.0
20260508070003 65 252 2.6 3.5 0.00 0.00 0.00 64 1009.1
20260508065903 65 260 1.7 3.5 0.00 0.00 0.00 65 1009.0
20260508065803 64 267 2.6 3.5 0.00 0.00 0.00 65 1009.1
20260508065703 64 265 2.6 3.5 0.00 0.00 0.00 65 1009.1
20260508065603 64 258 2.6 3.5 0.00 0.00 0.00 66 1009.0
20260508065503 64 253 2.6 3.5 0.00 0.00 0.00 66 1009.0
20260508065403 64 252 3.5 5.2 0.00 0.00 0.00 67 1008.8
20260508065306 63 247 3.5 5.2 0.00 0.00 0.00 67 1008.9
20260508065203 64 242 3.5 5.2 0.00 0.00 0.00 67 1008.8
20260508065103 64 239 3.5 5.2 0.00 0.00 0.00 67 1008.9
20260508065003 64 238 3.5 5.2 0.00 0.00 0.00 67 1008.9
20260508064903 64 236 3.5 5.2 0.00 0.00 0.00 67 1009.2
20260508064803 64 235 3.5 5.2 0.00 0.00 0.00 67 1009.1
20260508064703 64 238 3.5 5.2 0.00 0.00 0.00 67 1008.8
20260508064603 64 242 3.5 5.2 0.00 0.00 0.00 67 1009.0
20260508064504 64 254 3.5 5.2 0.00 0.00 0.00 66 1008.9
20260508064403 64 259 2.6 3.5 0.00 0.00 0.00 66 1008.8
20260508064303 64 265 2.6 3.5 0.00 0.00 0.00 66 1009.0
20260508064203 64 268 2.6 3.5 0.00 0.00 0.00 67 1009.0
20260508064103 64 268 3.5 3.5 0.00 0.00 0.00 68 1009.0
20260508064003 63 273 3.5 3.5 0.00 0.00 0.00 68 1009.0
20260508063903 63 277 3.5 3.5 0.00 0.00 0.00 68 1009.0
20260508063803 64 286 3.5 3.5 0.00 0.00 0.00 68 1009.0
20260508063703 64 288 2.6 3.5 0.00 0.00 0.00 68 1008.7
20260508063603 63 294 3.5 3.5 0.00 0.00 0.00 68 1008.9
20260508063503 63 296 2.6 3.5 0.00 0.00 0.00 68 1008.8
20260508063403 63 296 2.6 3.5 0.00 0.00 0.00 68 1009.0
20260508063303 63 291 3.5 3.5 0.00 0.00 0.00 69 1008.8
20260508063203 63 295 3.5 3.5 0.00 0.00 0.00 69 1009.1
20260508063103 63 294 3.5 3.5 0.00 0.00 0.00 69 1008.9
20260508063003 63 291 3.5 3.5 0.00 0.00 0.00 69 1008.8
20260508062903 63 287 3.5 3.5 0.00 0.00 0.00 69 1009.1
20260508062803 63 283 3.5 3.5 0.00 0.00 0.00 69 1009.0
20260508062703 63 284 3.5 5.2 0.00 0.00 0.00 69 1008.9
20260508062603 63 287 3.5 5.2 0.00 0.00 0.00 69 1008.9
20260508062503 63 285 3.5 5.2 0.00 0.00 0.00 69 1009.1
20260508062403 63 283 3.5 5.2 0.00 0.00 0.00 69 1008.8
20260508062306 63 285 2.6 5.2 0.00 0.00 0.00 69 1009.1
20260508062203 63 289 2.6 5.2 0.00 0.00 0.00 69 1009.0
20260508062103 63 293 2.6 5.2 0.00 0.00 0.00 69 1009.1
20260508062003 63 300 2.6 5.2 0.00 0.00 0.00 69 1009.0
20260508061903 63 304 1.7 5.2 0.00 0.00 0.00 69 1009.1
20260508061803 63 301 1.7 5.2 0.00 0.00 0.00 69 1008.9
20260508061703 63 302 1.7 3.5 0.00 0.00 0.00 69 1009.1
20260508061603 63 298 1.7 3.5 0.00 0.00 0.00 69 1009.1
20260508061503 64 302 1.7 3.5 0.00 0.00 0.00 69 1009.1
20260508061403 64 298 1.7 3.5 0.00 0.00 0.00 69 1008.9
20260508061303 63 294 1.7 3.5 0.00 0.00 0.00 69 1009.0
20260508061203 63 288 2.6 3.5 0.00 0.00 0.00 69 1009.0
20260508061103 63 284 2.6 3.5 0.00 0.00 0.00 69 1009.0
20260508061003 63 275 2.6 3.5 0.00 0.00 0.00 69 1009.1
20260508060903 63 270 2.6 3.5 0.00 0.00 0.00 70 1009.1
20260508060803 63 270 2.6 3.5 0.00 0.00 0.00 70 1009.0
20260508060703 63 268 2.6 3.5 0.00 0.00 0.00 70 1008.9
20260508060603 63 258 2.6 3.5 0.00 0.00 0.00 69 1008.8
20260508060503 62 252 2.6 3.5 0.00 0.00 0.00 69 1008.8
20260508060403 63 246 2.6 3.5 0.00 0.00 0.00 69 1009.0
20260508060303 63 244 2.6 3.5 0.00 0.00 0.00 69 1008.9
20260508060203 62 241 1.7 3.5 0.00 0.00 0.00 69 1009.0
20260508060004 62 235 1.7 3.5 0.00 0.00 0.00 69 1009.0
20260508055903 62 236 1.7 3.5 0.00 0.00 0.00 70 1009.0
20260508055803 62 237 0.9 3.5 0.00 0.00 0.00 70 1008.9
20260508055703 62 232 0.9 3.5 0.00 0.00 0.00 69 1008.9
20260508055603 62 234 0.9 3.5 0.00 0.00 0.00 69 1009.1
20260508055503 63 225 0.0 3.5 0.00 0.00 0.00 69 1008.9
20260508055403 63 0 0.0 0.0 0.00 0.00 0.00 70 1008.9
20260508055306 63 0 0.0 0.0 0.00 0.00 0.00 69 1009.0
20260508055203 63 0 0.0 0.0 0.00 0.00 0.00 69 1008.8
20260508055103 63 0 0.0 0.0 0.00 0.00 0.00 69 1008.9
20260508055003 63 0 0.0 0.0 0.00 0.00 0.00 69 1008.9
20260508054903 63 0 0.0 0.0 0.00 0.00 0.00 70 1008.9
20260508054803 63 0 0.0 0.0 0.00 0.00 0.00 70 1008.7
20260508054703 63 0 0.0 0.0 0.00 0.00 0.00 70 1008.6
20260508054603 63 0 0.0 0.0 0.00 0.00 0.00 70 1008.7
20260508054503 63 0 0.0 0.0 0.00 0.00 0.00 70 1008.6
20260508054403 62 0 0.0 0.0 0.00 0.00 0.00 70 1008.7
20260508054303 62 0 0.0 0.0 0.00 0.00 0.00 70 1008.7
20260508054203 62 0 0.0 0.0 0.00 0.00 0.00 70 1008.9
20260508054103 62 0 0.0 0.0 0.00 0.00 0.00 70 1008.7
20260508054003 62 0 0.0 0.0 0.00 0.00 0.00 70 1008.7
20260508053903 63 0 0.0 0.0 0.00 0.00 0.00 70 1008.8
20260508053803 63 0 0.0 0.0 0.00 0.00 0.00 70 1008.6
20260508053703 63 0 0.0 0.0 0.00 0.00 0.00 70 1008.6
20260508053603 63 0 0.0 0.0 0.00 0.00 0.00 70 1008.6
20260508053503 63 0 0.0 0.0 0.00 0.00 0.00 70 1008.7
20260508053403 63 0 0.0 0.0 0.00 0.00 0.00 69 1008.7
20260508053303 63 0 0.0 0.0 0.00 0.00 0.00 68 1008.7
20260508053203 63 0 0.0 0.0 0.00 0.00 0.00 68 1008.6
20260508053104 63 0 0.0 0.0 0.00 0.00 0.00 68 1008.8
20260508053003 64 0 0.0 0.0 0.00 0.00 0.00 68 1008.5
20260508052903 63 0 0.0 0.0 0.00 0.00 0.00 67 1008.5
20260508052803 63 0 0.0 0.0 0.00 0.00 0.00 67 1008.8
20260508052703 63 0 0.0 0.0 0.00 0.00 0.00 67 1008.5
20260508052603 63 0 0.0 0.0 0.00 0.00 0.00 67 1008.6
20260508052508 63 0 0.0 0.0 0.00 0.00 0.00 67 1008.6
20260508052403 64 0 0.0 0.0 0.00 0.00 0.00 67 1008.8
20260508052306 63 0 0.0 0.0 0.00 0.00 0.00 67 1008.6
20260508052203 63 0 0.0 0.0 0.00 0.00 0.00 67 1008.4
20260508052103 63 0 0.0 0.0 0.00 0.00 0.00 67 1008.4
20260508052003 63 0 0.0 0.0 0.00 0.00 0.00 67 1008.5
20260508051903 62 0 0.0 0.0 0.00 0.00 0.00 67 1008.4
20260508051803 62 0 0.0 0.0 0.00 0.00 0.00 67 1008.7
20260508051703 62 0 0.0 0.0 0.00 0.00 0.00 67 1008.4
20260508051603 63 0 0.0 0.0 0.00 0.00 0.00 68 1008.6
20260508051503 63 0 0.0 0.0 0.00 0.00 0.00 68 1008.6
20260508051403 63 0 0.0 0.0 0.00 0.00 0.00 68 1008.5
20260508051303 63 0 0.0 0.0 0.00 0.00 0.00 68 1008.3
20260508051203 62 0 0.0 0.0 0.00 0.00 0.00 68 1008.7
20260508051103 62 0 0.0 0.0 0.00 0.00 0.00 69 1008.5
20260508051003 62 0 0.0 0.0 0.00 0.00 0.00 69 1008.4
20260508050903 62 0 0.0 0.0 0.00 0.00 0.00 69 1008.3
20260508050803 62 0 0.0 0.0 0.00 0.00 0.00 69 1008.4
20260508050703 61 0 0.0 0.0 0.00 0.00 0.00 69 1008.5
20260508050603 61 0 0.0 0.0 0.00 0.00 0.00 69 1008.5
20260508050503 61 0 0.0 0.0 0.00 0.00 0.00 69 1008.4
20260508050404 61 0 0.0 0.0 0.00 0.00 0.00 69 1008.3
20260508050303 61 0 0.0 0.0 0.00 0.00 0.00 69 1008.4
20260508050203 61 0 0.0 0.0 0.00 0.00 0.00 69 1008.3
20260508050103 61 0 0.0 0.0 0.00 0.00 0.00 69 1008.4
20260508050004 61 0 0.0 0.0 0.00 0.00 0.00 69 1008.3
20260508045903 61 0 0.0 0.0 0.00 0.00 0.00 69 1008.4
20260508045803 61 0 0.0 0.0 0.00 0.00 0.00 69 1008.2
20260508045703 61 0 0.0 0.0 0.00 0.00 0.00 69 1008.2
20260508045603 61 0 0.0 0.0 0.00 0.00 0.00 69 1008.5
20260508045503 61 0 0.0 0.0 0.00 0.00 0.00 69 1008.5
20260508045403 61 0 0.0 0.0 0.00 0.00 0.00 69 1008.2
20260508045306 61 0 0.0 0.0 0.00 0.00 0.00 69 1008.2
20260508045203 60 0 0.0 0.0 0.00 0.00 0.00 69 1008.3
20260508045103 61 0 0.0 0.0 0.00 0.00 0.00 69 1008.3
20260508045003 61 0 0.0 0.0 0.00 0.00 0.00 69 1008.4
20260508044903 60 0 0.0 0.0 0.00 0.00 0.00 69 1008.3
20260508044803 60 0 0.0 0.0 0.00 0.00 0.00 69 1008.3
20260508044703 60 0 0.0 0.0 0.00 0.00 0.00 69 1008.4
20260508044603 60 0 0.0 0.0 0.00 0.00 0.00 69 1008.3
20260508044503 60 0 0.0 0.0 0.00 0.00 0.00 69 1008.0
20260508044403 60 0 0.0 0.0 0.00 0.00 0.00 69 1008.1
20260508044303 60 0 0.0 0.0 0.00 0.00 0.00 70 1008.1
20260508044203 60 0 0.0 0.0 0.00 0.00 0.00 70 1008.2
20260508044103 60 0 0.0 0.0 0.00 0.00 0.00 70 1008.1
20260508044003 60 0 0.0 0.0 0.00 0.00 0.00 70 1008.2
20260508043903 60 0 0.0 0.0 0.00 0.00 0.00 70 1008.1
20260508043803 60 0 0.0 0.0 0.00 0.00 0.00 70 1008.2
20260508043703 60 0 0.0 0.0 0.00 0.00 0.00 70 1008.3
20260508043603 60 0 0.0 0.0 0.00 0.00 0.00 70 1007.9
20260508043503 60 0 0.0 0.0 0.00 0.00 0.00 70 1008.2
20260508043403 60 0 0.0 0.0 0.00 0.00 0.00 70 1008.0
20260508043303 60 0 0.0 0.0 0.00 0.00 0.00 70 1008.0
20260508043203 60 0 0.0 0.0 0.00 0.00 0.00 70 1008.1
20260508043103 60 0 0.0 0.0 0.00 0.00 0.00 70 1008.0
20260508043003 60 0 0.0 0.0 0.00 0.00 0.00 70 1008.2
20260508042903 60 0 0.0 0.0 0.00 0.00 0.00 70 1008.1
20260508042803 60 0 0.0 0.0 0.00 0.00 0.00 70 1008.1
20260508042703 60 0 0.0 0.0 0.00 0.00 0.00 70 1007.9
20260508042603 60 0 0.0 0.0 0.00 0.00 0.00 70 1008.0
20260508042503 60 0 0.0 0.0 0.00 0.00 0.00 70 1007.9
20260508042403 60 0 0.0 0.0 0.00 0.00 0.00 70 1008.0
20260508042306 60 0 0.0 0.0 0.00 0.00 0.00 70 1008.0
20260508042203 60 0 0.0 0.0 0.00 0.00 0.00 70 1007.9
20260508042103 60 0 0.0 0.0 0.00 0.00 0.00 70 1007.9
20260508042003 60 0 0.0 0.0 0.00 0.00 0.00 70 1008.0
20260508041903 60 0 0.0 0.0 0.00 0.00 0.00 70 1007.9
20260508041803 60 0 0.0 0.0 0.00 0.00 0.00 70 1007.8
20260508041703 60 0 0.0 0.0 0.00 0.00 0.00 70 1007.9
20260508041603 60 0 0.0 0.0 0.00 0.00 0.00 70 1007.8
20260508041504 60 0 0.0 0.0 0.00 0.00 0.00 70 1007.9
20260508041403 60 0 0.0 0.0 0.00 0.00 0.00 70 1007.8
20260508041303 60 0 0.0 0.0 0.00 0.00 0.00 70 1008.0
20260508041203 60 0 0.0 0.0 0.00 0.00 0.00 70 1007.9
20260508041103 60 0 0.0 0.0 0.00 0.00 0.00 70 1007.9
20260508041003 60 0 0.0 0.0 0.00 0.00 0.00 70 1008.0
20260508040903 60 0 0.0 0.0 0.00 0.00 0.00 70 1007.7
20260508040803 60 0 0.0 0.0 0.00 0.00 0.00 70 1007.9
20260508040703 60 0 0.0 0.0 0.00 0.00 0.00 70 1007.7
20260508040603 60 0 0.0 0.0 0.00 0.00 0.00 70 1007.8
20260508040503 60 0 0.0 0.0 0.00 0.00 0.00 70 1007.8
20260508040403 60 0 0.0 0.0 0.00 0.00 0.00 70 1007.7
20260508040303 60 0 0.0 0.0 0.00 0.00 0.00 70 1007.7
20260508040203 60 0 0.0 0.0 0.00 0.00 0.00 70 1007.8
20260508040003 60 0 0.0 0.0 0.00 0.00 0.00 70 1007.7
20260508035903 60 0 0.0 0.0 0.00 0.00 0.00 70 1007.6
20260508035803 60 0 0.0 0.0 0.00 0.00 0.00 70 1007.6
20260508035703 60 0 0.0 0.0 0.00 0.00 0.00 70 1007.4
20260508035603 60 0 0.0 0.0 0.00 0.00 0.00 71 1007.3
20260508035503 60 0 0.0 0.0 0.00 0.00 0.00 71 1007.3
20260508035403 60 0 0.0 0.0 0.00 0.00 0.00 71 1007.5
20260508035306 60 0 0.0 0.0 0.00 0.00 0.00 71 1007.5
20260508035203 60 0 0.0 0.0 0.00 0.00 0.00 71 1007.4
20260508035103 60 0 0.0 0.0 0.00 0.00 0.00 71 1007.4
20260508035003 60 0 0.0 0.0 0.00 0.00 0.00 71 1007.4
20260508034903 60 0 0.0 0.0 0.00 0.00 0.00 71 1007.4
20260508034803 60 0 0.0 0.0 0.00 0.00 0.00 71 1007.6
20260508034703 60 0 0.0 0.0 0.00 0.00 0.00 71 1007.5
20260508034603 60 0 0.0 0.0 0.00 0.00 0.00 71 1007.4
20260508034503 60 0 0.0 0.0 0.00 0.00 0.00 71 1007.7
20260508034403 60 0 0.0 0.0 0.00 0.00 0.00 71 1007.7
20260508034303 60 0 0.0 0.0 0.00 0.00 0.00 71 1007.6
20260508034203 60 0 0.0 0.0 0.00 0.00 0.00 71 1007.5
20260508034103 60 0 0.0 0.0 0.00 0.00 0.00 71 1007.5
20260508034003 60 0 0.0 0.0 0.00 0.00 0.00 71 1007.6
20260508033903 60 0 0.0 0.0 0.00 0.00 0.00 71 1007.5
20260508033803 60 0 0.0 0.0 0.00 0.00 0.00 71 1007.6
20260508033703 60 0 0.0 0.0 0.00 0.00 0.00 70 1007.5
20260508033603 60 0 0.0 0.0 0.00 0.00 0.00 70 1007.3
20260508033503 60 0 0.0 0.0 0.00 0.00 0.00 70 1007.6
20260508033403 60 0 0.0 0.0 0.00 0.00 0.00 70 1007.6
20260508033303 60 0 0.0 0.0 0.00 0.00 0.00 70 1007.3
20260508033203 60 0 0.0 0.0 0.00 0.00 0.00 70 1007.5
20260508033103 60 0 0.0 0.0 0.00 0.00 0.00 70 1007.4
20260508033003 60 0 0.0 0.0 0.00 0.00 0.00 70 1007.6
20260508032903 60 0 0.0 0.0 0.00 0.00 0.00 70 1007.3
20260508032803 60 0 0.0 0.0 0.00 0.00 0.00 70 1007.5
20260508032703 60 0 0.0 0.0 0.00 0.00 0.00 70 1007.5
20260508032603 60 0 0.0 0.0 0.00 0.00 0.00 70 1007.3
20260508032503 60 0 0.0 0.0 0.00 0.00 0.00 70 1007.6
20260508032403 60 0 0.0 0.0 0.00 0.00 0.00 70 1007.4
20260508032306 60 0 0.0 0.0 0.00 0.00 0.00 70 1007.5
20260508032203 60 0 0.0 0.0 0.00 0.00 0.00 70 1007.4
20260508032103 60 0 0.0 0.0 0.00 0.00 0.00 70 1007.3
20260508032003 60 0 0.0 0.0 0.00 0.00 0.00 70 1007.4
20260508031903 60 0 0.0 0.0 0.00 0.00 0.00 70 1007.4
20260508031803 60 0 0.0 0.0 0.00 0.00 0.00 70 1007.5
20260508031703 60 0 0.0 0.0 0.00 0.00 0.00 70 1007.4
20260508031603 60 0 0.0 0.0 0.00 0.00 0.00 70 1007.2
20260508031503 60 0 0.0 0.0 0.00 0.00 0.00 70 1007.3
20260508031403 60 0 0.0 0.0 0.00 0.00 0.00 70 1007.1
20260508031303 60 0 0.0 0.0 0.00 0.00 0.00 70 1007.4
20260508031203 60 0 0.0 0.0 0.00 0.00 0.00 70 1007.4
20260508031103 60 0 0.0 0.0 0.00 0.00 0.00 70 1007.3
20260508031003 60 0 0.0 0.0 0.00 0.00 0.00 70 1007.3
20260508030903 60 0 0.0 0.0 0.00 0.00 0.00 70 1007.5
20260508030703 60 0 0.0 0.0 0.00 0.00 0.00 70 1007.3
20260508030603 60 0 0.0 0.0 0.00 0.00 0.00 70 1007.5
20260508030503 60 0 0.0 0.0 0.00 0.00 0.00 69 1007.3
20260508030403 60 0 0.0 0.0 0.00 0.00 0.00 69 1007.4
20260508030303 60 0 0.0 0.0 0.00 0.00 0.00 69 1007.4
20260508030203 60 0 0.0 0.0 0.00 0.00 0.00 69 1007.5
20260508030103 60 0 0.0 0.0 0.00 0.00 0.00 69 1007.4
20260508030003 60 0 0.0 0.0 0.00 0.00 0.00 69 1007.2
20260508025903 60 0 0.0 0.0 0.00 0.00 0.00 69 1007.2
20260508025803 60 0 0.0 0.0 0.00 0.00 0.00 69 1007.2
20260508025703 60 0 0.0 0.0 0.00 0.00 0.00 69 1007.3
20260508025603 60 0 0.0 0.0 0.00 0.00 0.00 69 1007.2
20260508025503 61 0 0.0 0.0 0.00 0.00 0.00 69 1007.3
20260508025403 61 0 0.0 0.0 0.00 0.00 0.00 69 1007.2
20260508025306 61 0 0.0 0.0 0.00 0.00 0.00 69 1007.2
20260508025203 61 0 0.0 0.0 0.00 0.00 0.00 69 1007.2
20260508025103 61 0 0.0 0.0 0.00 0.00 0.00 69 1007.2
20260508025003 61 0 0.0 0.0 0.00 0.00 0.00 69 1007.1
20260508024903 61 0 0.0 0.0 0.00 0.00 0.00 69 1007.0
20260508024803 61 0 0.0 0.0 0.00 0.00 0.00 69 1007.2
20260508024703 61 0 0.0 0.0 0.00 0.00 0.00 69 1007.3
20260508024603 61 0 0.0 0.0 0.00 0.00 0.00 69 1007.2
20260508024503 61 0 0.0 0.0 0.00 0.00 0.00 69 1007.0
20260508024403 61 0 0.0 0.0 0.00 0.00 0.00 69 1007.1
20260508024303 61 0 0.0 0.0 0.00 0.00 0.00 69 1007.3
20260508024203 60 0 0.0 0.0 0.00 0.00 0.00 69 1007.2
20260508024103 60 0 0.0 0.0 0.00 0.00 0.00 69 1007.3
20260508024003 60 0 0.0 0.0 0.00 0.00 0.00 69 1007.2
20260508023903 60 0 0.0 0.0 0.00 0.00 0.00 69 1007.3
20260508023804 60 0 0.0 0.0 0.00 0.00 0.00 69 1007.0
20260508023703 60 0 0.0 0.0 0.00 0.00 0.00 69 1007.3
20260508023603 60 0 0.0 0.0 0.00 0.00 0.00 69 1007.1
20260508023503 60 0 0.0 0.0 0.00 0.00 0.00 69 1007.3
20260508023403 60 0 0.0 0.0 0.00 0.00 0.00 69 1007.1
20260508023303 60 0 0.0 0.0 0.00 0.00 0.00 69 1007.3
20260508023203 60 0 0.0 0.0 0.00 0.00 0.00 69 1007.2
20260508023103 60 0 0.0 0.0 0.00 0.00 0.00 69 1007.2
20260508023003 60 0 0.0 0.0 0.00 0.00 0.00 69 1007.3
20260508022903 60 0 0.0 0.0 0.00 0.00 0.00 69 1007.1
20260508022803 60 0 0.0 0.0 0.00 0.00 0.00 69 1007.0
20260508022703 60 0 0.0 0.0 0.00 0.00 0.00 69 1007.3
20260508022603 60 0 0.0 0.0 0.00 0.00 0.00 69 1007.1
20260508022503 60 0 0.0 0.0 0.00 0.00 0.00 69 1007.2
20260508022403 60 0 0.0 0.0 0.00 0.00 0.00 69 1006.9
20260508022306 60 0 0.0 0.0 0.00 0.00 0.00 69 1007.1
20260508022204 60 0 0.0 0.0 0.00 0.00 0.00 69 1007.1
20260508022103 60 0 0.0 0.0 0.00 0.00 0.00 69 1007.0
20260508022003 60 0 0.0 0.0 0.00 0.00 0.00 69 1007.1
20260508021903 60 0 0.0 0.0 0.00 0.00 0.00 69 1007.0
20260508021803 60 0 0.0 0.0 0.00 0.00 0.00 69 1006.9
20260508021703 60 0 0.0 0.0 0.00 0.00 0.00 69 1007.0
20260508021603 60 0 0.0 0.0 0.00 0.00 0.00 69 1006.8
20260508021503 60 0 0.0 0.0 0.00 0.00 0.00 69 1007.1
20260508021403 60 0 0.0 0.0 0.00 0.00 0.00 69 1006.9
20260508021303 60 0 0.0 0.0 0.00 0.00 0.00 69 1006.8
20260508021203 61 0 0.0 0.0 0.00 0.00 0.00 69 1006.8
20260508021103 61 0 0.0 0.0 0.00 0.00 0.00 69 1006.9
20260508021003 61 0 0.0 0.0 0.00 0.00 0.00 69 1006.8
20260508020903 61 0 0.0 0.0 0.00 0.00 0.00 69 1006.8
20260508020803 61 0 0.0 0.0 0.00 0.00 0.00 69 1006.9
20260508020703 61 0 0.0 0.0 0.00 0.00 0.00 69 1006.7
20260508020603 61 0 0.0 0.0 0.00 0.00 0.00 69 1006.8
20260508020503 61 22 0.0 1.7 0.00 0.00 0.00 68 1006.4
20260508020403 61 22 0.0 1.7 0.00 0.00 0.00 68 1006.6
20260508020303 61 22 0.9 1.7 0.00 0.00 0.00 68 1006.8
20260508020203 62 27 0.9 1.7 0.00 0.00 0.00 68 1006.8
20260508020103 62 26 0.9 1.7 0.00 0.00 0.00 68 1006.6
20260508020004 62 28 0.9 1.7 0.00 0.00 0.00 68 1006.6
20260508015903 62 28 0.9 1.7 0.00 0.00 0.00 68 1006.4
20260508015803 62 27 0.9 1.7 0.00 0.00 0.00 68 1006.6
20260508015703 62 27 0.9 1.7 0.00 0.00 0.00 68 1006.7
20260508015603 62 27 0.9 1.7 0.00 0.00 0.00 68 1006.6
20260508015503 61 28 0.9 1.7 0.00 0.00 0.00 68 1006.6
20260508015403 61 29 0.9 1.7 0.00 0.00 0.00 68 1006.7
20260508015306 61 31 0.9 1.7 0.00 0.00 0.00 68 1006.6
20260508015203 61 28 0.9 1.7 0.00 0.00 0.00 68 1006.6
20260508015103 61 31 0.0 1.7 0.00 0.00 0.00 68 1006.7
20260508015003 61 28 0.0 1.7 0.00 0.00 0.00 68 1006.8
20260508014903 61 22 0.0 1.7 0.00 0.00 0.00 68 1006.8
20260508014803 61 0 0.0 0.0 0.00 0.00 0.00 68 1007.0
20260508014703 61 0 0.0 0.0 0.00 0.00 0.00 68 1006.9
20260508014603 61 0 0.0 0.0 0.00 0.00 0.00 68 1006.9
20260508014503 61 0 0.0 0.0 0.00 0.00 0.00 68 1007.0
20260508014403 61 0 0.0 0.0 0.00 0.00 0.00 68 1006.9
20260508014303 61 0 0.0 0.0 0.00 0.00 0.00 68 1006.9
20260508014203 61 0 0.0 0.0 0.00 0.00 0.00 68 1007.0
20260508014103 61 0 0.0 0.0 0.00 0.00 0.00 68 1007.0
20260508014003 61 0 0.0 0.0 0.00 0.00 0.00 68 1006.9
20260508013903 61 0 0.0 0.0 0.00 0.00 0.00 68 1007.0
20260508013803 61 0 0.0 0.0 0.00 0.00 0.00 68 1007.0
20260508013703 61 0 0.0 0.0 0.00 0.00 0.00 68 1006.8
20260508013603 61 0 0.0 0.0 0.00 0.00 0.00 68 1006.8
20260508013503 61 0 0.0 0.0 0.00 0.00 0.00 68 1006.8
20260508013403 61 0 0.0 0.0 0.00 0.00 0.00 68 1006.9
20260508013303 61 0 0.0 0.0 0.00 0.00 0.00 69 1006.9
20260508013203 61 0 0.0 0.0 0.00 0.00 0.00 69 1006.6
20260508013103 61 0 0.0 0.0 0.00 0.00 0.00 69 1006.8
20260508013003 61 0 0.0 0.0 0.00 0.00 0.00 69 1006.9
20260508012903 61 0 0.0 0.0 0.00 0.00 0.00 69 1006.7
20260508012803 61 0 0.0 0.0 0.00 0.00 0.00 69 1006.9
20260508012703 61 0 0.0 0.0 0.00 0.00 0.00 69 1007.0
20260508012603 61 0 0.0 0.0 0.00 0.00 0.00 69 1006.8
20260508012503 61 0 0.0 0.0 0.00 0.00 0.00 69 1006.7
20260508012404 61 0 0.0 0.0 0.00 0.00 0.00 69 1006.7
20260508012307 61 0 0.0 0.0 0.00 0.00 0.00 69 1006.6
20260508012203 61 0 0.0 0.0 0.00 0.00 0.00 69 1006.8
20260508012103 61 0 0.0 0.0 0.00 0.00 0.00 69 1006.8
20260508012003 61 0 0.0 0.0 0.00 0.00 0.00 69 1006.7
20260508011903 61 0 0.0 0.0 0.00 0.00 0.00 69 1006.9
20260508011803 62 0 0.0 0.0 0.00 0.00 0.00 69 1006.9
20260508011703 62 0 0.0 0.0 0.00 0.00 0.00 69 1007.1
20260508011603 62 0 0.0 0.0 0.00 0.00 0.00 69 1006.9
20260508011503 62 0 0.0 0.0 0.00 0.00 0.00 69 1006.9
20260508011403 62 0 0.0 0.0 0.00 0.00 0.00 69 1007.0
20260508011303 62 0 0.0 0.0 0.00 0.00 0.00 69 1006.8
20260508011203 62 0 0.0 0.0 0.00 0.00 0.00 69 1006.8
20260508011103 62 0 0.0 0.0 0.00 0.00 0.00 69 1006.8
20260508011003 62 0 0.0 0.0 0.00 0.00 0.00 69 1006.7
20260508010903 62 0 0.0 0.0 0.00 0.00 0.00 69 1006.8
20260508010803 61 0 0.0 0.0 0.00 0.00 0.00 69 1006.9
20260508010703 61 0 0.0 0.0 0.00 0.00 0.00 69 1006.9
20260508010603 61 0 0.0 0.0 0.00 0.00 0.00 69 1006.8
20260508010503 61 0 0.0 0.0 0.00 0.00 0.00 69 1006.7
20260508010403 61 0 0.0 0.0 0.00 0.00 0.00 69 1006.9
20260508010303 62 0 0.0 0.0 0.00 0.00 0.00 69 1006.8
20260508010203 62 0 0.0 0.0 0.00 0.00 0.00 69 1006.7
20260508010103 62 0 0.0 0.0 0.00 0.00 0.00 69 1006.7
20260508010004 62 0 0.0 0.0 0.00 0.00 0.00 69 1006.7
20260508005903 62 0 0.0 0.0 0.00 0.00 0.00 69 1006.6
20260508005803 62 0 0.0 0.0 0.00 0.00 0.00 69 1007.1
20260508005703 62 0 0.0 0.0 0.00 0.00 0.00 69 1006.7
20260508005603 62 0 0.0 0.0 0.00 0.00 0.00 69 1007.0
20260508005503 62 0 0.0 0.0 0.00 0.00 0.00 69 1006.9
20260508005403 62 0 0.0 0.0 0.00 0.00 0.00 69 1006.9
20260508005305 62 0 0.0 0.0 0.00 0.00 0.00 70 1007.0
20260508005203 62 0 0.0 0.0 0.00 0.00 0.00 70 1006.8
20260508005103 62 0 0.0 0.0 0.00 0.00 0.00 70 1006.8
20260508005003 62 0 0.0 0.0 0.00 0.00 0.00 70 1006.9
20260508004903 62 0 0.0 0.0 0.00 0.00 0.00 70 1007.0
20260508004803 62 0 0.0 0.0 0.00 0.00 0.00 70 1006.8
20260508004703 62 0 0.0 0.0 0.00 0.00 0.00 70 1006.9
20260508004603 62 0 0.0 0.0 0.00 0.00 0.00 70 1006.9
20260508004503 62 0 0.0 0.0 0.00 0.00 0.00 70 1006.8
20260508004403 62 0 0.0 0.0 0.00 0.00 0.00 70 1006.7
20260508004303 62 0 0.0 0.0 0.00 0.00 0.00 70 1006.9
20260508004203 62 0 0.0 0.0 0.00 0.00 0.00 70 1006.7
20260508004103 62 0 0.0 0.0 0.00 0.00 0.00 70 1006.4
20260508004003 62 0 0.0 0.0 0.00 0.00 0.00 70 1006.8
20260508003903 62 0 0.0 0.0 0.00 0.00 0.00 70 1006.7
20260508003803 62 0 0.0 0.0 0.00 0.00 0.00 70 1006.9
20260508003703 62 0 0.0 0.0 0.00 0.00 0.00 69 1006.9
20260508003603 62 0 0.0 0.0 0.00 0.00 0.00 69 1006.7
20260508003503 62 0 0.0 0.0 0.00 0.00 0.00 69 1006.9
20260508003403 62 0 0.0 0.0 0.00 0.00 0.00 69 1006.7
20260508003303 62 0 0.0 0.0 0.00 0.00 0.00 69 1006.9
20260508003203 62 0 0.0 0.0 0.00 0.00 0.00 69 1007.0
20260508003103 62 0 0.0 0.0 0.00 0.00 0.00 69 1007.0
20260508003003 62 0 0.0 0.0 0.00 0.00 0.00 69 1007.1
20260508002903 62 0 0.0 0.0 0.00 0.00 0.00 69 1007.1
20260508002803 62 0 0.0 0.0 0.00 0.00 0.00 69 1007.1
20260508002703 62 0 0.0 0.0 0.00 0.00 0.00 69 1007.0
20260508002603 62 0 0.0 0.0 0.00 0.00 0.00 69 1007.1
20260508002503 62 0 0.0 0.0 0.00 0.00 0.00 69 1007.2
20260508002403 62 0 0.0 0.0 0.00 0.00 0.00 69 1007.1
20260508002306 62 0 0.0 0.0 0.00 0.00 0.00 69 1007.2
20260508002203 62 0 0.0 0.0 0.00 0.00 0.00 69 1007.1
20260508002103 62 0 0.0 0.0 0.00 0.00 0.00 69 1007.1
20260508002003 62 360 0.0 1.7 0.00 0.00 0.00 69 1007.2
20260508001903 62 11 0.0 1.7 0.00 0.00 0.00 69 1007.1
20260508001803 62 16 0.0 1.7 0.00 0.00 0.00 69 1007.3
20260508001703 62 25 0.9 1.7 0.00 0.00 0.00 69 1007.1
20260508001603 62 36 0.9 1.7 0.00 0.00 0.00 69 1007.2
20260508001503 62 42 0.9 1.7 0.00 0.00 0.00 69 1007.1
20260508001403 62 47 0.9 1.7 0.00 0.00 0.00 69 1006.9
20260508001303 62 50 1.7 1.7 0.00 0.00 0.00 69 1007.3
20260508001203 62 52 1.7 1.7 0.00 0.00 0.00 69 1007.2
20260508001103 62 54 1.7 1.7 0.00 0.00 0.00 69 1007.1
20260508001003 62 57 1.7 1.7 0.00 0.00 0.00 69 1006.8
20260508000903 62 62 1.7 3.5 0.00 0.00 0.00 69 1006.8
20260508000803 62 65 1.7 3.5 0.00 0.00 0.00 70 1007.1
20260508000703 63 67 1.7 3.5 0.00 0.00 0.00 70 1007.1
20260508000603 63 67 1.7 3.5 0.00 0.00 0.00 70 1007.0
20260508000503 63 67 1.7 3.5 0.00 0.00 0.00 70 1007.0
20260508000404 63 67 0.9 3.5 0.00 0.00 0.00 70 1006.9
20260508000305 63 67 0.9 3.5 0.00 0.00 0.00 70 1007.0
20260508000204 63 67 0.9 3.5 0.00 0.00 0.00 70 1007.1
20260508000003 63 67 0.0 3.5 0.00 0.00 0.00 70 1007.1
20260507235903 63 67 0.0 3.5 0.00 0.00 0.00 70 1006.9
20260507235803 62 0 0.0 0.0 0.00 0.00 0.00 70 1006.9
20260507235703 63 0 0.0 0.0 0.00 0.00 0.00 70 1007.0
20260507235603 63 0 0.0 0.0 0.00 0.00 0.00 70 1007.0
20260507235503 63 0 0.0 0.0 0.00 0.00 0.00 70 1006.9
20260507235403 63 0 0.0 0.0 0.00 0.00 0.00 70 1007.0
20260507235306 63 0 0.0 0.0 0.00 0.00 0.00 70 1007.1
20260507235203 63 0 0.0 0.0 0.00 0.00 0.00 69 1006.9
20260507235103 62 0 0.0 0.0 0.00 0.00 0.00 69 1007.2
20260507235003 62 0 0.0 0.0 0.00 0.00 0.00 69 1007.4
20260507234903 62 0 0.0 0.0 0.00 0.00 0.00 69 1007.3
20260507234803 62 0 0.0 0.0 0.00 0.00 0.00 69 1007.1
20260507234703 62 0 0.0 0.0 0.00 0.00 0.00 69 1007.1
20260507234603 62 0 0.0 0.0 0.00 0.00 0.00 69 1007.3
20260507234503 62 0 0.0 0.0 0.00 0.00 0.00 68 1007.3
20260507234403 62 0 0.0 0.0 0.00 0.00 0.00 68 1007.2
20260507234303 62 0 0.0 0.0 0.00 0.00 0.00 68 1007.3
20260507234203 62 0 0.0 0.0 0.00 0.00 0.00 68 1007.3
20260507234103 62 0 0.0 0.0 0.00 0.00 0.00 68 1007.4
20260507234003 62 0 0.0 0.0 0.00 0.00 0.00 68 1007.3
20260507233903 62 0 0.0 0.0 0.00 0.00 0.00 68 1007.2
20260507233803 62 22 0.0 1.7 0.00 0.00 0.00 68 1007.5
20260507233703 62 31 0.0 1.7 0.00 0.00 0.00 68 1007.4
20260507233603 62 22 0.0 1.7 0.00 0.00 0.00 68 1007.3
20260507233503 62 22 0.0 1.7 0.00 0.00 0.00 68 1007.4
20260507233403 62 18 0.0 1.7 0.00 0.00 0.00 68 1007.5
20260507233303 62 13 0.9 1.7 0.00 0.00 0.00 68 1007.6
20260507233203 62 8 0.9 1.7 0.00 0.00 0.00 68 1007.7
20260507233103 63 359 0.9 1.7 0.00 0.00 0.00 68 1007.7
20260507233003 62 351 0.9 1.7 0.00 0.00 0.00 68 1007.6
20260507232903 63 348 0.9 1.7 0.00 0.00 0.00 68 1007.6
20260507232803 62 344 1.7 1.7 0.00 0.00 0.00 68 1007.8
20260507232703 62 338 1.7 1.7 0.00 0.00 0.00 68 1007.8
20260507232603 62 328 1.7 1.7 0.00 0.00 0.00 68 1007.6
20260507232503 63 325 1.7 3.5 0.00 0.00 0.00 68 1007.7
20260507232403 63 324 1.7 3.5 0.00 0.00 0.00 68 1007.7
20260507232306 63 323 1.7 3.5 0.00 0.00 0.00 68 1007.9
20260507232203 63 320 1.7 3.5 0.00 0.00 0.00 68 1007.7
20260507232103 63 320 1.7 3.5 0.00 0.00 0.00 68 1008.0
20260507232003 63 321 1.7 3.5 0.00 0.00 0.00 68 1007.7
20260507231903 63 319 1.7 3.5 0.00 0.00 0.00 68 1008.1
20260507231803 63 321 1.7 3.5 0.00 0.00 0.00 68 1008.1
20260507231703 63 325 1.7 3.5 0.00 0.00 0.00 68 1008.2
20260507231603 63 335 1.7 3.5 0.00 0.00 0.00 68 1008.2
20260507231503 63 339 0.9 3.5 0.00 0.00 0.00 68 1008.0
20260507231403 63 354 0.9 3.5 0.00 0.00 0.00 68 1008.1
20260507231303 63 355 0.9 3.5 0.00 0.00 0.00 68 1007.9
20260507231203 63 1 0.9 3.5 0.00 0.00 0.00 69 1008.1
20260507231003 63 329 0.9 1.7 0.00 0.00 0.00 69 1008.1
20260507230903 63 322 0.9 1.7 0.00 0.00 0.00 69 1008.1
20260507230803 62 312 0.9 1.7 0.00 0.00 0.00 69 1008.2
20260507230703 62 302 0.9 3.5 0.00 0.00 0.00 69 1008.4
20260507230603 62 302 0.9 3.5 0.00 0.00 0.00 69 1008.2
20260507230503 62 302 0.9 3.5 0.00 0.00 0.00 69 1008.2
20260507230403 62 301 0.9 3.5 0.00 0.00 0.00 69 1008.4
20260507230303 62 307 1.7 3.5 0.00 0.00 0.00 69 1008.4
20260507230203 62 306 0.9 3.5 0.00 0.00 0.00 69 1008.5
20260507230004 62 307 0.9 3.5 0.00 0.00 0.00 69 1008.7
20260507225903 62 305 0.9 3.5 0.00 0.00 0.00 69 1008.6
20260507225803 62 302 0.9 3.5 0.00 0.00 0.00 69 1008.5
20260507225703 62 314 0.9 3.5 0.00 0.00 0.00 69 1008.7
20260507225603 62 324 0.0 3.5 0.00 0.00 0.00 69 1008.4
20260507225403 62 332 0.0 3.5 0.00 0.00 0.00 69 1008.8
20260507225306 62 337 0.0 3.5 0.00 0.00 0.00 69 1008.7
20260507225203 62 0 0.0 0.0 0.00 0.00 0.00 69 1008.7
20260507225103 62 0 0.0 0.0 0.00 0.00 0.00 69 1008.7
20260507225003 62 0 0.0 0.0 0.00 0.00 0.00 69 1008.7
20260507224903 62 0 0.0 0.0 0.00 0.00 0.00 69 1009.0
20260507224803 62 270 0.0 1.7 0.00 0.00 0.00 69 1009.1
20260507224703 62 292 0.0 1.7 0.00 0.00 0.00 69 1009.0
20260507224603 62 303 0.9 3.5 0.00 0.00 0.00 69 1008.6
20260507224504 62 304 0.9 3.5 0.00 0.00 0.00 69 1009.1
20260507224403 62 308 0.9 3.5 0.00 0.00 0.00 69 1009.0
20260507224303 62 308 0.9 3.5 0.00 0.00 0.00 69 1009.1
20260507224203 62 308 0.9 3.5 0.00 0.00 0.00 69 1008.9
20260507224103 62 308 0.9 3.5 0.00 0.00 0.00 69 1008.8
20260507224003 62 308 0.9 3.5 0.00 0.00 0.00 69 1009.0
20260507223903 62 311 0.9 3.5 0.00 0.00 0.00 69 1008.9
20260507223803 62 315 1.7 3.5 0.00 0.00 0.00 69 1008.7
20260507223703 62 316 1.7 3.5 0.00 0.00 0.00 69 1008.9
20260507223603 62 314 1.7 3.5 0.00 0.00 0.00 69 1008.6
20260507223503 62 318 1.7 3.5 0.00 0.00 0.00 69 1008.6
20260507223403 62 319 1.7 3.5 0.00 0.00 0.00 69 1008.7
20260507223303 62 323 1.7 3.5 0.00 0.00 0.00 69 1008.5
20260507223203 62 329 1.7 3.5 0.00 0.00 0.00 69 1008.9
20260507223103 62 330 2.6 3.5 0.00 0.00 0.00 69 1008.8
20260507223003 62 331 2.6 3.5 0.00 0.00 0.00 69 1008.8
20260507222903 62 331 2.6 3.5 0.00 0.00 0.00 69 1009.0
20260507222803 62 330 2.6 3.5 0.00 0.00 0.00 69 1008.8
20260507222703 62 335 2.6 3.5 0.00 0.00 0.00 69 1008.8
20260507222603 62 336 2.6 3.5 0.00 0.00 0.00 69 1008.9
20260507222503 62 336 2.6 3.5 0.00 0.00 0.00 69 1008.8
20260507222403 62 336 2.6 3.5 0.00 0.00 0.00 69 1008.9
20260507222306 62 335 2.6 3.5 0.00 0.00 0.00 69 1009.0
20260507222203 62 333 2.6 3.5 0.00 0.00 0.00 69 1008.9
20260507222103 62 334 2.6 3.5 0.00 0.00 0.00 69 1009.1
20260507222003 62 333 2.6 3.5 0.00 0.00 0.00 70 1009.1
20260507221903 62 334 2.6 3.5 0.00 0.00 0.00 70 1009.1
20260507221803 62 341 2.6 3.5 0.00 0.00 0.00 70 1009.1
20260507221603 62 343 2.6 3.5 0.00 0.00 0.00 70 1009.0
20260507221503 62 345 2.6 3.5 0.00 0.00 0.00 70 1009.0
20260507221403 62 348 1.7 3.5 0.00 0.00 0.00 70 1009.0
20260507221303 62 345 1.7 3.5 0.00 0.00 0.00 70 1008.9
20260507221203 62 340 2.6 3.5 0.00 0.00 0.00 70 1009.0
20260507221103 62 336 2.6 3.5 0.00 0.00 0.00 70 1009.1
20260507221003 62 333 2.6 3.5 0.00 0.00 0.00 70 1009.1
20260507220903 62 331 2.6 3.5 0.00 0.00 0.00 70 1009.2
20260507220803 62 319 2.6 3.5 0.00 0.00 0.00 70 1009.1
20260507220703 62 308 2.6 3.5 0.00 0.00 0.00 71 1009.1
20260507220603 62 300 2.6 3.5 0.00 0.00 0.00 71 1009.1
20260507220503 62 295 2.6 3.5 0.00 0.00 0.00 71 1009.2
20260507220403 62 291 2.6 3.5 0.00 0.00 0.00 71 1009.4
20260507220303 62 289 2.6 3.5 0.00 0.00 0.00 72 1009.3
20260507220203 62 288 2.6 3.5 0.00 0.00 0.00 72 1009.2
20260507220028 62 285 2.6 3.5 0.00 0.00 0.00 72 1009.3
20260507215903 62 287 2.6 3.5 0.00 0.00 0.00 72 1009.3
20260507215803 62 294 2.6 3.5 0.00 0.00 0.00 73 1009.3
20260507215703 62 297 2.6 3.5 0.00 0.00 0.00 73 1009.3
20260507215603 62 300 2.6 3.5 0.00 0.00 0.00 73 1009.5
20260507215503 63 305 2.6 3.5 0.00 0.00 0.00 73 1009.4
20260507215403 63 304 2.6 3.5 0.00 0.00 0.00 73 1009.5
20260507215306 63 303 2.6 3.5 0.00 0.00 0.00 73 1009.3
20260507215203 63 301 2.6 3.5 0.00 0.00 0.00 73 1009.3
20260507215103 63 300 2.6 3.5 0.00 0.00 0.00 73 1009.2
20260507215003 63 293 2.6 5.2 0.00 0.00 0.00 73 1009.2
20260507214903 63 288 3.5 5.2 0.00 0.00 0.00 73 1009.2
20260507214803 63 277 3.5 7.0 0.00 0.00 0.00 73 1009.1
20260507214703 63 265 3.5 7.0 0.00 0.00 0.00 73 1009.3
20260507214603 63 259 4.3 7.0 0.00 0.00 0.00 73 1009.3
20260507214503 63 257 4.3 7.0 0.00 0.00 0.00 73 1009.1
20260507214403 63 253 4.3 7.0 0.00 0.00 0.00 74 1009.2
20260507214303 63 250 4.3 7.0 0.00 0.00 0.00 74 1009.3
20260507214203 63 246 4.3 7.0 0.00 0.00 0.00 74 1009.6
20260507214103 63 241 4.3 7.0 0.00 0.00 0.00 74 1009.6
20260507214003 63 237 4.3 7.0 0.00 0.00 0.00 74 1009.4
20260507213903 63 229 3.5 7.0 0.00 0.00 0.00 74 1009.3
20260507213803 64 216 3.5 7.0 0.00 0.00 0.00 74 1009.4
20260507213703 64 219 2.6 7.0 0.00 0.00 0.00 74 1009.4
20260507213603 64 208 1.7 5.2 0.00 0.00 0.00 74 1009.2
20260507213503 64 180 1.7 3.5 0.00 0.00 0.00 74 1008.9
20260507213403 64 157 1.7 3.5 0.00 0.00 0.00 74 1008.9
20260507213303 64 148 1.7 3.5 0.00 0.00 0.00 74 1008.6
20260507213203 64 139 1.7 3.5 0.00 0.00 0.00 74 1008.3
20260507213103 64 140 1.7 3.5 0.00 0.00 0.00 74 1008.5
20260507213003 64 135 2.6 3.5 0.00 0.00 0.00 74 1008.1
20260507212905 64 129 2.6 3.5 0.00 0.00 0.00 74 1007.9
20260507212803 64 125 2.6 5.2 0.00 0.00 0.00 74 1008.2
20260507212703 64 118 2.6 5.2 0.00 0.00 0.00 74 1007.9
20260507212603 64 116 3.5 5.2 0.00 0.00 0.00 74 1008.1
20260507212503 64 111 3.5 5.2 0.00 0.00 0.00 74 1007.9
20260507212404 64 104 3.5 5.2 0.00 0.00 0.00 74 1008.1
20260507212306 64 97 3.5 5.2 0.00 0.00 0.00 74 1008.1
20260507212203 64 92 3.5 5.2 0.00 0.00 0.00 74 1008.0
20260507212103 64 86 3.5 5.2 0.00 0.00 0.00 74 1007.8
20260507212003 64 83 3.5 5.2 0.00 0.00 0.00 74 1008.0
20260507211903 64 81 3.5 5.2 0.00 0.00 0.00 74 1007.9
20260507211803 64 75 3.5 5.2 0.00 0.00 0.00 74 1007.9
20260507211703 64 73 3.5 6.1 0.00 0.00 0.00 74 1007.7
20260507211603 64 66 3.5 6.1 0.00 0.00 0.00 74 1007.9
20260507211503 64 66 4.3 6.1 0.00 0.00 0.00 74 1007.8
20260507211403 64 66 4.3 6.1 0.00 0.00 0.00 74 1008.0
20260507211303 64 67 4.3 6.1 0.00 0.00 0.00 74 1007.9
20260507211203 64 64 4.3 6.1 0.00 0.00 0.00 74 1008.0
20260507211103 64 58 4.3 6.1 0.00 0.00 0.00 74 1007.9
20260507211003 64 50 4.3 7.0 0.00 0.00 0.00 74 1007.8
20260507210803 64 37 5.2 9.6 0.00 0.00 0.00 74 1007.3
20260507210703 64 33 5.2 9.6 0.00 0.00 0.00 75 1007.5
20260507210603 64 37 6.1 9.6 0.00 0.00 0.00 75 1007.5
20260507210503 64 37 6.1 9.6 0.00 0.00 0.00 74 1007.4
20260507210403 64 38 7.0 9.6 0.00 0.00 0.00 75 1007.3
20260507210303 64 34 7.0 9.6 0.00 0.00 0.00 75 1007.4
20260507210203 64 34 7.8 9.6 0.00 0.00 0.00 75 1007.0
20260507210103 64 34 7.8 9.6 0.00 0.00 0.00 75 1007.1
20260507210004 63 34 7.8 9.6 0.00 0.00 0.00 75 1007.0
20260507205903 64 35 7.8 9.6 0.00 0.00 0.00 75 1007.0
20260507205803 64 38 7.8 9.6 0.00 0.00 0.00 75 1006.9
20260507205708 64 40 7.8 9.6 0.00 0.00 0.00 75 1006.9
20260507205603 64 34 7.0 9.6 0.00 0.00 0.00 75 1006.9
20260507205503 64 35 7.0 9.6 0.00 0.00 0.00 75 1006.9
20260507205403 64 29 7.0 9.6 0.00 0.00 0.00 75 1006.9
20260507205306 64 32 7.0 9.6 0.00 0.00 0.00 75 1006.8
20260507205203 64 32 6.1 9.6 0.00 0.00 0.00 75 1007.0
20260507205103 64 39 6.1 7.8 0.00 0.00 0.00 75 1007.0
20260507205004 64 38 6.1 9.6 0.00 0.00 0.00 75 1006.9
20260507204903 64 42 6.1 9.6 0.00 0.00 0.00 75 1007.0
20260507204803 64 42 7.0 9.6 0.00 0.00 0.00 75 1006.9
20260507204703 64 38 7.0 9.6 0.00 0.00 0.00 74 1006.7
20260507204603 64 39 7.0 9.6 0.00 0.00 0.00 75 1006.8
20260507204503 64 38 7.0 9.6 0.00 0.00 0.00 74 1006.7
20260507204403 64 38 7.0 9.6 0.00 0.00 0.00 75 1006.9
20260507204303 64 33 7.0 9.6 0.00 0.00 0.00 75 1006.8
20260507204203 64 30 7.8 9.6 0.00 0.00 0.00 75 1006.9
20260507204103 64 27 7.8 9.6 0.00 0.00 0.00 75 1006.8
20260507204003 64 25 7.8 12.2 0.00 0.00 0.00 75 1006.8
20260507203903 64 22 7.8 12.2 0.00 0.00 0.00 75 1007.2
20260507203803 64 24 7.8 12.2 0.00 0.00 0.00 75 1006.9
20260507203703 64 28 7.8 12.2 0.00 0.00 0.00 75 1006.9
20260507203603 64 26 8.7 12.2 0.00 0.00 0.00 75 1006.8
20260507203503 64 29 8.7 12.2 0.00 0.00 0.00 75 1006.9
20260507203403 64 30 8.7 12.2 0.00 0.00 0.00 75 1007.0
20260507203303 64 32 8.7 12.2 0.00 0.00 0.00 75 1006.9
20260507203203 64 35 8.7 12.2 0.00 0.00 0.00 75 1006.9
20260507203103 64 34 8.7 12.2 0.00 0.00 0.00 75 1007.0
20260507203003 64 35 8.7 12.2 0.00 0.00 0.00 75 1006.9
20260507202903 64 37 8.7 11.3 0.00 0.00 0.00 75 1006.9
20260507202803 64 36 7.8 11.3 0.00 0.00 0.00 75 1006.6
20260507202703 64 34 7.8 11.3 0.00 0.00 0.00 75 1006.7
20260507202603 64 38 7.0 9.6 0.00 0.00 0.00 75 1007.1
20260507202503 64 35 7.0 9.6 0.00 0.00 0.00 75 1007.1
20260507202403 64 35 6.1 7.8 0.00 0.00 0.00 75 1007.1
20260507202306 64 33 6.1 7.0 0.00 0.00 0.00 75 1007.2
20260507202203 64 35 5.2 7.0 0.00 0.00 0.00 75 1007.2
20260507202103 64 37 5.2 7.0 0.00 0.00 0.00 75 1007.3
20260507202003 64 40 5.2 7.0 0.00 0.00 0.00 75 1007.4
20260507201903 64 39 4.3 7.0 0.00 0.00 0.00 75 1007.4
20260507201803 64 35 4.3 6.1 0.00 0.00 0.00 75 1007.5
20260507201703 64 33 5.2 7.0 0.00 0.00 0.00 75 1007.6
20260507201603 64 31 5.2 7.0 0.00 0.00 0.00 75 1007.5
20260507201503 64 33 5.2 7.0 0.00 0.00 0.00 75 1007.5
20260507201403 64 36 5.2 7.0 0.00 0.00 0.00 75 1007.5
20260507201303 64 38 5.2 7.0 0.00 0.00 0.00 75 1007.4
20260507201203 64 42 5.2 7.0 0.00 0.00 0.00 75 1007.5
20260507201103 64 41 6.1 7.0 0.00 0.00 0.00 75 1007.1
20260507201003 64 41 6.1 7.0 0.00 0.00 0.00 75 1007.0
20260507200903 64 39 6.1 7.0 0.00 0.00 0.00 75 1007.2
20260507200803 64 39 6.1 7.0 0.00 0.00 0.00 75 1007.1
20260507200703 64 41 6.1 7.0 0.00 0.00 0.00 75 1007.3
20260507200604 64 45 6.1 7.0 0.00 0.00 0.00 75 1007.2
20260507200503 64 46 6.1 7.0 0.00 0.00 0.00 75 1007.2
20260507200403 64 45 6.1 7.0 0.00 0.00 0.00 75 1007.3
20260507200303 64 41 6.1 7.0 0.00 0.00 0.00 75 1007.1
20260507200203 64 38 6.1 7.0 0.00 0.00 0.00 75 1007.2
20260507200103 64 36 6.1 7.0 0.00 0.00 0.00 75 1007.1
20260507200004 64 35 6.1 7.0 0.00 0.00 0.00 75 1006.9
20260507195903 64 35 6.1 7.0 0.00 0.00 0.00 75 1007.1
20260507195803 64 37 5.2 7.0 0.00 0.00 0.00 75 1007.1
20260507195703 64 37 5.2 7.0 0.00 0.00 0.00 75 1007.0
20260507195603 64 32 5.2 7.0 0.00 0.00 0.00 75 1007.2
20260507195503 64 31 5.2 7.0 0.00 0.00 0.00 75 1007.2
20260507195403 64 34 4.3 7.0 0.00 0.00 0.00 75 1007.2
20260507195305 64 36 4.3 7.0 0.00 0.00 0.00 75 1007.2
20260507195203 64 35 3.5 6.1 0.00 0.00 0.00 75 1007.3
20260507195103 64 40 3.5 6.1 0.00 0.00 0.00 75 1007.2
20260507195003 64 38 2.6 6.1 0.00 0.00 0.00 75 1007.3
20260507194903 64 40 1.7 6.1 0.00 0.00 0.00 75 1007.6
20260507194803 64 47 1.7 3.5 0.00 0.00 0.00 75 1007.5
20260507194703 64 56 1.7 3.5 0.00 0.00 0.00 76 1007.4
20260507194603 64 70 1.7 3.5 0.00 0.00 0.00 75 1007.7
20260507194503 64 80 0.9 3.5 0.00 0.00 0.00 76 1007.7
20260507194403 64 78 0.9 3.5 0.00 0.00 0.00 76 1007.7
20260507194303 64 67 0.9 3.5 0.00 0.00 0.00 76 1007.8
20260507194203 64 60 1.7 3.5 0.00 0.00 0.00 76 1007.4
20260507194103 64 65 1.7 5.2 0.00 0.00 0.00 76 1007.7
20260507194003 64 74 2.6 6.1 0.00 0.00 0.00 76 1007.6
20260507193903 64 82 2.6 6.1 0.00 0.00 0.00 76 1007.8
20260507193804 64 86 3.5 6.1 0.00 0.00 0.00 76 1007.7
20260507193703 64 87 3.5 6.1 0.00 0.00 0.00 76 1007.7
20260507193603 64 88 3.5 6.1 0.00 0.00 0.00 76 1007.8
20260507193503 64 88 4.3 6.1 0.00 0.00 0.00 76 1007.8
20260507193403 64 85 4.3 6.1 0.00 0.00 0.00 76 1007.9
20260507193303 64 88 4.3 6.1 0.00 0.00 0.00 76 1007.6
20260507193203 64 87 4.3 6.1 0.00 0.00 0.00 76 1007.5
20260507193103 64 86 4.3 6.1 0.00 0.00 0.00 76 1007.6
20260507193003 64 80 4.3 6.1 0.00 0.00 0.00 76 1007.4
20260507192903 64 75 4.3 6.1 0.00 0.00 0.00 76 1007.3
20260507192803 64 70 4.3 6.1 0.00 0.00 0.00 76 1007.2
20260507192703 64 61 4.3 6.1 0.00 0.00 0.00 76 1007.3
20260507192603 64 55 5.2 7.0 0.00 0.00 0.00 76 1007.2
20260507192503 64 51 5.2 7.0 0.00 0.00 0.00 76 1007.2
20260507192403 64 50 5.2 7.0 0.00 0.00 0.00 76 1007.2
20260507192306 64 45 6.1 9.6 0.00 0.00 0.00 76 1007.5
20260507192203 64 43 6.1 9.6 0.00 0.00 0.00 76 1007.2
20260507192103 64 39 6.1 9.6 0.00 0.00 0.00 76 1007.2
20260507192003 64 37 6.1 9.6 0.00 0.00 0.00 76 1007.1
20260507191903 64 33 6.1 9.6 0.00 0.00 0.00 76 1007.2
20260507191803 64 31 6.1 9.6 0.00 0.00 0.00 76 1007.2
20260507191703 64 32 6.1 9.6 0.00 0.00 0.00 76 1007.3
20260507191603 64 35 6.1 9.6 0.00 0.00 0.00 76 1007.2
20260507191503 64 39 6.1 9.6 0.00 0.00 0.00 76 1007.0
20260507191403 64 41 6.1 9.6 0.00 0.00 0.00 76 1007.1
20260507191303 64 45 6.1 9.6 0.00 0.00 0.00 76 1007.1
20260507191203 64 49 6.1 7.0 0.00 0.00 0.00 76 1006.9
20260507191103 64 57 6.1 7.0 0.00 0.00 0.00 76 1006.8
20260507191003 64 60 5.2 7.0 0.00 0.00 0.00 76 1006.8
20260507190903 64 62 5.2 9.6 0.00 0.00 0.00 76 1006.6
20260507190803 64 59 6.1 9.6 0.00 0.00 0.00 76 1006.9
20260507190703 64 62 6.1 9.6 0.00 0.00 0.00 76 1006.9
20260507190603 64 57 6.1 9.6 0.00 0.00 0.00 76 1006.8
20260507190503 64 53 6.1 9.6 0.00 0.00 0.00 76 1006.5
20260507190403 64 51 6.1 9.6 0.00 0.00 0.00 76 1006.7
20260507190303 64 46 6.1 9.6 0.00 0.00 0.00 76 1006.5
20260507190203 64 45 6.1 9.6 0.00 0.00 0.00 76 1006.7
20260507190103 64 43 6.1 9.6 0.00 0.00 0.00 76 1006.4
20260507190005 64 42 6.1 9.6 0.00 0.00 0.00 77 1006.2
20260507185903 64 42 6.1 9.6 0.00 0.00 0.00 76 1006.3
20260507185803 64 47 5.2 7.8 0.00 0.00 0.00 76 1006.5
20260507185703 64 46 5.2 7.8 0.00 0.00 0.00 76 1006.3
20260507185603 65 45 5.2 7.8 0.00 0.00 0.00 77 1006.2
20260507185503 64 48 5.2 7.8 0.00 0.00 0.00 77 1006.3
20260507185403 65 48 4.3 7.0 0.00 0.00 0.00 77 1006.3
20260507185305 65 51 4.3 6.1 0.00 0.00 0.00 77 1006.2
20260507185203 65 55 4.3 6.1 0.00 0.00 0.00 77 1006.4
20260507185103 65 57 4.3 6.1 0.00 0.00 0.00 77 1006.3
20260507185003 65 60 4.3 6.1 0.00 0.00 0.00 77 1006.3
20260507184903 65 59 4.3 6.1 0.00 0.00 0.00 77 1006.3
20260507184803 65 55 5.2 6.1 0.00 0.00 0.00 78 1006.3
20260507184703 65 61 5.2 7.0 0.00 0.00 0.00 78 1006.5
20260507184603 65 58 5.2 7.0 0.00 0.00 0.00 78 1006.6
20260507184504 65 59 5.2 7.0 0.00 0.00 0.00 78 1006.5
20260507184403 65 63 5.2 7.0 0.00 0.00 0.00 78 1006.4
20260507184303 65 67 5.2 7.0 0.00 0.00 0.00 78 1006.5
20260507184203 65 62 6.1 9.6 0.00 0.00 0.00 78 1006.4
20260507184103 65 58 6.1 9.6 0.00 0.00 0.00 78 1006.5
20260507184003 65 55 6.1 9.6 0.00 0.00 0.00 78 1006.3
20260507183903 65 60 6.1 9.6 0.00 0.00 0.00 78 1006.5
20260507183803 65 60 6.1 9.6 0.00 0.00 0.00 78 1006.4
20260507183703 65 57 6.1 9.6 0.00 0.00 0.00 78 1006.5
20260507183603 65 59 6.1 9.6 0.00 0.00 0.00 78 1006.4
20260507183503 65 59 6.1 9.6 0.00 0.00 0.00 78 1006.4
20260507183403 65 60 6.1 9.6 0.00 0.00 0.00 78 1006.2
20260507183303 65 56 6.1 9.6 0.00 0.00 0.00 78 1006.4
20260507183203 65 55 6.1 9.6 0.00 0.00 0.00 78 1006.4
20260507183103 65 61 6.1 7.8 0.00 0.00 0.00 79 1006.4
20260507183003 65 65 6.1 7.8 0.00 0.00 0.00 79 1006.2
20260507182903 65 64 5.2 7.8 0.00 0.00 0.00 79 1006.2
20260507182803 65 67 6.1 7.8 0.00 0.00 0.00 79 1006.4
20260507182703 65 72 5.2 7.8 0.00 0.00 0.00 79 1006.4
20260507182603 65 72 5.2 7.8 0.00 0.00 0.00 79 1006.5
20260507182503 65 72 6.1 7.8 0.00 0.00 0.00 79 1006.2
20260507182403 65 70 5.2 7.0 0.00 0.00 0.00 79 1006.3
20260507182306 65 74 5.2 7.0 0.00 0.00 0.00 79 1006.4
20260507182203 65 78 5.2 7.0 0.00 0.00 0.00 79 1006.3
20260507182103 65 79 5.2 7.0 0.00 0.00 0.00 79 1006.4
20260507182003 65 74 4.3 7.0 0.00 0.00 0.00 80 1006.2
20260507181903 65 77 4.3 7.0 0.00 0.00 0.00 80 1006.2
20260507181803 65 71 5.2 7.0 0.00 0.00 0.00 80 1006.4
20260507181703 65 72 5.2 7.0 0.00 0.00 0.00 80 1006.2
20260507181603 65 71 5.2 7.0 0.00 0.00 0.00 80 1006.3
20260507181503 65 68 4.3 7.0 0.00 0.00 0.00 80 1006.3
20260507181403 65 67 4.3 7.0 0.00 0.00 0.00 80 1006.2
20260507181303 65 71 4.3 7.0 0.00 0.00 0.00 80 1006.1
20260507181203 65 68 4.3 7.0 0.00 0.00 0.00 80 1006.2
20260507181103 65 68 4.3 7.0 0.00 0.00 0.00 80 1006.3
20260507181003 65 73 5.2 7.0 0.00 0.00 0.00 80 1006.4
20260507180903 65 74 5.2 7.8 0.00 0.00 0.00 80 1006.3
20260507180803 65 82 5.2 7.8 0.00 0.00 0.00 80 1006.3
20260507180703 65 84 5.2 7.8 0.00 0.00 0.00 80 1006.3
20260507180604 65 85 5.2 7.8 0.00 0.00 0.00 80 1006.3
20260507180503 65 86 5.2 7.8 0.00 0.00 0.00 80 1006.2
20260507180435 66 87 5.2 7.8 0.00 0.00 0.00 80 1006.3
20260507180303 66 84 5.2 7.8 0.00 0.00 0.00 80 1006.3
20260507180203 66 87 6.1 7.8 0.00 0.00 0.00 80 1006.3
20260507180003 66 89 6.1 7.8 0.00 0.00 0.00 80 1006.4
20260507175903 66 86 5.2 7.8 0.00 0.00 0.00 80 1006.4
20260507175803 66 84 5.2 7.0 0.00 0.00 0.00 80 1006.5
20260507175703 66 85 4.3 7.0 0.00 0.00 0.00 80 1006.4
20260507175603 66 88 5.2 7.0 0.00 0.00 0.00 80 1006.6
20260507175503 66 95 5.2 7.0 0.00 0.00 0.00 80 1006.5
20260507175403 66 99 5.2 7.0 0.00 0.00 0.00 80 1006.5
20260507175306 66 99 5.2 7.0 0.00 0.00 0.00 80 1006.4
20260507175203 66 103 5.2 7.0 0.00 0.00 0.00 80 1006.6
20260507175103 66 99 5.2 7.0 0.00 0.00 0.00 80 1006.5
20260507175003 66 101 5.2 7.0 0.00 0.00 0.00 80 1006.5
20260507174903 66 102 5.2 7.0 0.00 0.00 0.00 80 1006.7
20260507174803 66 103 5.2 7.0 0.00 0.00 0.00 80 1006.4
20260507174703 66 103 6.1 7.0 0.00 0.00 0.00 80 1006.5
20260507174603 66 100 6.1 7.8 0.00 0.00 0.00 80 1006.3
20260507174503 66 99 6.1 7.8 0.00 0.00 0.00 80 1006.4
20260507174403 66 98 6.1 7.8 0.00 0.00 0.00 80 1006.6
20260507174303 66 97 6.1 7.8 0.00 0.00 0.00 80 1006.5
20260507174203 66 93 6.1 7.8 0.00 0.00 0.00 81 1006.4
20260507174103 66 93 6.1 7.8 0.00 0.00 0.00 81 1006.4
20260507174003 66 91 6.1 7.8 0.00 0.00 0.00 81 1006.5
20260507173903 66 89 6.1 7.8 0.00 0.00 0.00 81 1006.3
20260507173803 66 90 6.1 7.8 0.00 0.00 0.00 81 1006.3
20260507173703 66 88 6.1 7.8 0.00 0.00 0.00 81 1006.2
20260507173604 66 89 6.1 7.0 0.00 0.00 0.00 81 1006.2
20260507173503 66 91 6.1 7.0 0.00 0.00 0.00 81 1006.3
20260507173403 66 94 5.2 7.0 0.00 0.00 0.00 81 1006.1
20260507173303 66 96 6.1 7.0 0.00 0.00 0.00 81 1006.3
20260507173203 66 98 6.1 7.0 0.00 0.00 0.00 81 1006.3
20260507173103 66 98 6.1 7.8 0.00 0.00 0.00 81 1006.2
20260507173004 66 99 6.1 9.6 0.00 0.00 0.00 81 1006.3
20260507172903 66 101 6.1 9.6 0.00 0.00 0.00 81 1006.5
20260507172803 66 97 7.0 9.6 0.00 0.00 0.00 81 1006.4
20260507172703 66 95 7.0 9.6 0.00 0.00 0.00 81 1006.2
20260507172603 66 95 7.0 9.6 0.00 0.00 0.00 81 1006.3
20260507172503 66 95 7.0 9.6 0.00 0.00 0.00 81 1006.1
20260507172403 66 92 7.0 9.6 0.00 0.00 0.00 81 1006.1
20260507172307 66 90 7.0 9.6 0.00 0.00 0.00 81 1006.1
20260507172203 66 93 7.0 9.6 0.00 0.00 0.00 81 1006.0
20260507172103 66 96 7.0 9.6 0.00 0.00 0.00 81 1006.2
20260507172003 66 99 7.0 9.6 0.00 0.00 0.00 81 1006.2
20260507171903 66 93 7.0 7.8 0.00 0.00 0.00 81 1006.0
20260507171803 67 93 7.0 11.3 0.00 0.00 0.00 82 1005.9
20260507171703 67 96 7.8 11.3 0.00 0.00 0.00 82 1005.9
20260507171603 66 98 7.8 11.3 0.00 0.00 0.00 82 1005.9
20260507171503 67 100 7.8 11.3 0.00 0.00 0.00 82 1006.0
20260507171403 66 102 7.8 11.3 0.00 0.00 0.00 82 1006.0
20260507171303 67 104 7.8 11.3 0.00 0.00 0.00 82 1005.9
20260507171203 67 101 7.8 11.3 0.00 0.00 0.00 82 1005.8
20260507171103 67 100 8.7 11.3 0.00 0.00 0.00 82 1006.0
20260507171003 67 99 8.7 11.3 0.00 0.00 0.00 82 1005.9
20260507170903 67 102 8.7 11.3 0.00 0.00 0.00 82 1005.9
20260507170803 67 101 8.7 9.6 0.00 0.00 0.00 82 1005.7
20260507170703 67 98 8.7 9.6 0.00 0.00 0.00 82 1005.8
20260507170603 67 97 8.7 9.6 0.00 0.00 0.00 82 1006.0
20260507170503 67 96 8.7 9.6 0.00 0.00 0.00 82 1005.8
20260507170403 67 95 8.7 9.6 0.00 0.00 0.00 82 1005.7
20260507170303 67 96 8.7 9.6 0.00 0.00 0.00 82 1005.9
20260507170203 67 97 8.7 9.6 0.00 0.00 0.00 82 1005.9
20260507170103 67 99 8.7 9.6 0.00 0.00 0.00 82 1005.8
20260507170003 67 100 8.7 9.6 0.00 0.00 0.00 82 1005.7
20260507165903 67 101 8.7 9.6 0.00 0.00 0.00 82 1005.9
20260507165803 67 102 8.7 9.6 0.00 0.00 0.00 83 1005.8
20260507165703 67 104 8.7 9.6 0.00 0.00 0.00 83 1005.9
20260507165603 67 108 8.7 9.6 0.00 0.00 0.00 83 1005.9
20260507165503 67 111 8.7 9.6 0.00 0.00 0.00 83 1006.2
20260507165403 67 108 8.7 9.6 0.00 0.00 0.00 83 1006.0
20260507165306 67 107 8.7 9.6 0.00 0.00 0.00 83 1006.1
20260507165203 67 107 8.7 9.6 0.00 0.00 0.00 83 1006.2
20260507165103 67 105 8.7 9.6 0.00 0.00 0.00 83 1006.3
20260507165003 67 105 7.8 9.6 0.00 0.00 0.00 83 1006.1
20260507164903 67 103 7.8 9.6 0.00 0.00 0.00 83 1006.2
20260507164803 67 102 7.8 9.6 0.00 0.00 0.00 83 1005.8
20260507164703 67 102 7.0 9.6 0.00 0.00 0.00 83 1006.1
20260507164603 67 97 7.0 9.6 0.00 0.00 0.00 83 1006.3
20260507164503 67 94 6.1 9.6 0.00 0.00 0.00 83 1006.2
20260507164403 67 94 6.1 9.6 0.00 0.00 0.00 83 1006.4
20260507164303 67 91 6.1 9.6 0.00 0.00 0.00 83 1006.3
20260507164203 68 88 5.2 7.8 0.00 0.00 0.00 83 1006.5
20260507164103 68 85 5.2 7.8 0.00 0.00 0.00 83 1006.4
20260507164003 68 85 5.2 7.8 0.00 0.00 0.00 83 1006.4
20260507163903 68 88 5.2 7.8 0.00 0.00 0.00 83 1006.5
20260507163803 68 87 5.2 7.0 0.00 0.00 0.00 83 1006.4
20260507163703 68 88 5.2 7.0 0.00 0.00 0.00 83 1006.4
20260507163603 68 90 6.1 7.0 0.00 0.00 0.00 83 1006.5
20260507163503 68 93 6.1 7.0 0.00 0.00 0.00 83 1006.6
20260507163403 68 97 6.1 7.0 0.00 0.00 0.00 83 1006.7
20260507163303 68 97 5.2 7.0 0.00 0.00 0.00 83 1006.5
20260507163203 68 95 5.2 7.0 0.00 0.00 0.00 83 1006.4
20260507163103 68 96 5.2 7.0 0.00 0.00 0.00 83 1006.5
20260507163004 68 94 5.2 7.8 0.00 0.00 0.00 83 1006.6
20260507162903 68 93 5.2 9.6 0.00 0.00 0.00 83 1006.6
20260507162803 68 95 6.1 9.6 0.00 0.00 0.00 83 1006.6
20260507162703 68 95 6.1 9.6 0.00 0.00 0.00 83 1006.7
20260507162603 68 93 6.1 9.6 0.00 0.00 0.00 83 1006.7
20260507162503 68 91 7.0 9.6 0.00 0.00 0.00 83 1006.6
20260507162403 68 91 7.0 9.6 0.00 0.00 0.00 83 1006.7
20260507162306 68 92 7.0 9.6 0.00 0.00 0.00 83 1006.6
20260507162203 68 95 7.8 9.6 0.00 0.00 0.00 83 1006.5
20260507162103 68 94 7.8 9.6 0.00 0.00 0.00 83 1006.6
20260507162003 68 96 7.8 9.6 0.00 0.00 0.00 83 1006.7
20260507161903 68 92 8.7 11.3 0.00 0.00 0.00 83 1006.6
20260507161803 68 93 7.8 11.3 0.00 0.00 0.00 83 1006.7
20260507161703 68 93 7.8 11.3 0.00 0.00 0.00 83 1006.3
20260507161603 68 92 7.8 11.3 0.00 0.00 0.00 84 1006.6
20260507161503 68 89 7.8 11.3 0.00 0.00 0.00 84 1006.5
20260507161403 68 89 7.0 11.3 0.00 0.00 0.00 83 1006.1
20260507161303 68 89 7.0 11.3 0.00 0.00 0.00 83 1006.4
20260507161203 68 86 7.0 11.3 0.00 0.00 0.00 83 1006.1
20260507161103 68 91 7.8 11.3 0.00 0.00 0.00 83 1006.3
20260507161003 68 91 7.8 11.3 0.00 0.00 0.00 83 1006.4
20260507160903 68 93 7.8 11.3 0.00 0.00 0.00 84 1006.2
20260507160803 68 90 7.0 9.6 0.00 0.00 0.00 84 1006.1
20260507160703 68 88 7.0 9.6 0.00 0.00 0.00 84 1006.4
20260507160603 68 94 7.0 9.6 0.00 0.00 0.00 83 1006.4
20260507160503 68 98 7.0 9.6 0.00 0.00 0.00 84 1006.3
20260507160403 68 99 7.0 9.6 0.00 0.00 0.00 84 1006.3
20260507160303 68 97 7.0 9.6 0.00 0.00 0.00 83 1006.4
20260507160203 68 97 7.0 9.6 0.00 0.00 0.00 84 1006.4
20260507160103 68 96 7.0 9.6 0.00 0.00 0.00 84 1006.3
20260507160004 69 96 7.0 9.6 0.00 0.00 0.00 83 1006.4
20260507155903 69 96 7.0 9.6 0.00 0.00 0.00 83 1006.5
20260507155803 69 92 7.0 11.3 0.00 0.00 0.00 83 1006.3
20260507155703 69 95 7.8 11.3 0.00 0.00 0.00 83 1006.2
20260507155603 69 94 7.8 11.3 0.00 0.00 0.00 83 1006.3
20260507155503 69 92 7.8 11.3 0.00 0.00 0.00 83 1006.5
20260507155403 69 96 8.7 11.3 0.00 0.00 0.00 83 1006.5
20260507155306 69 100 8.7 11.3 0.00 0.00 0.00 83 1006.5
20260507155203 69 102 9.6 11.3 0.00 0.00 0.00 83 1006.2
20260507155103 69 101 9.6 11.3 0.00 0.00 0.00 83 1006.1
20260507155003 69 101 9.6 12.2 0.00 0.00 0.00 83 1006.3
20260507154903 69 103 9.6 12.2 0.00 0.00 0.00 83 1006.3
20260507154803 69 109 9.6 12.2 0.00 0.00 0.00 84 1006.3
20260507154703 68 107 9.6 12.2 0.00 0.00 0.00 84 1006.3
20260507154603 68 106 8.7 12.2 0.00 0.00 0.00 84 1006.2
20260507154503 68 104 8.7 12.2 0.00 0.00 0.00 84 1006.5
20260507154403 69 100 8.7 12.2 0.00 0.00 0.00 84 1006.2
20260507154303 69 93 8.7 12.2 0.00 0.00 0.00 83 1006.5
20260507154203 69 90 8.7 12.2 0.00 0.00 0.00 84 1006.4
20260507154103 69 91 8.7 12.2 0.00 0.00 0.00 84 1006.4
20260507154003 69 92 8.7 12.2 0.00 0.00 0.00 84 1006.4
20260507153903 69 91 8.7 11.3 0.00 0.00 0.00 84 1006.4
20260507153803 69 89 8.7 11.3 0.00 0.00 0.00 84 1006.1
20260507153703 70 90 8.7 11.3 0.00 0.00 0.00 83 1006.2
20260507153603 69 91 9.6 11.3 0.00 0.00 0.00 83 1006.4
20260507153504 69 96 9.6 11.3 0.00 0.00 0.00 83 1006.4
20260507153403 69 96 9.6 11.3 0.00 0.00 0.00 84 1006.3
20260507153303 69 97 9.6 11.3 0.00 0.00 0.00 83 1006.2
20260507153203 69 99 8.7 11.3 0.00 0.00 0.00 84 1006.2
20260507153103 69 101 8.7 11.3 0.00 0.00 0.00 83 1006.3
20260507153003 69 101 8.7 11.3 0.00 0.00 0.00 83 1006.1
20260507152903 69 99 8.7 11.3 0.00 0.00 0.00 84 1006.2
20260507152803 69 99 8.7 11.3 0.00 0.00 0.00 84 1006.4
20260507152703 68 98 7.8 11.3 0.00 0.00 0.00 84 1006.4
20260507152603 69 93 7.8 11.3 0.00 0.00 0.00 84 1006.5
20260507152503 69 91 7.8 11.3 0.00 0.00 0.00 84 1006.5
20260507152403 69 90 7.8 11.3 0.00 0.00 0.00 83 1006.3
20260507152306 69 92 8.7 11.3 0.00 0.00 0.00 83 1006.0
20260507152203 69 87 8.7 11.3 0.00 0.00 0.00 84 1006.1
20260507152103 69 89 8.7 11.3 0.00 0.00 0.00 84 1006.1
20260507152003 69 88 8.7 12.2 0.00 0.00 0.00 83 1005.9
20260507151903 69 88 8.7 12.2 0.00 0.00 0.00 84 1005.8
20260507151803 69 88 8.7 12.2 0.00 0.00 0.00 84 1005.8
20260507151703 69 89 8.7 12.2 0.00 0.00 0.00 84 1005.9
20260507151603 69 91 8.7 12.2 0.00 0.00 0.00 83 1005.7
20260507151504 69 93 7.8 12.2 0.00 0.00 0.00 84 1005.9
20260507151403 69 97 8.7 12.2 0.00 0.00 0.00 83 1006.0
20260507151303 69 97 8.7 12.2 0.00 0.00 0.00 83 1005.9
20260507151203 69 100 7.8 12.2 0.00 0.00 0.00 83 1005.8
20260507151103 69 97 8.7 12.2 0.00 0.00 0.00 84 1006.0
20260507151003 68 97 8.7 12.2 0.00 0.00 0.00 84 1006.1
20260507150903 69 98 8.7 11.3 0.00 0.00 0.00 84 1006.1
20260507150803 69 99 7.8 11.3 0.00 0.00 0.00 84 1006.3
20260507150703 69 95 7.8 11.3 0.00 0.00 0.00 84 1006.1
20260507150603 69 94 8.7 11.3 0.00 0.00 0.00 84 1006.5
20260507150503 69 91 8.7 11.3 0.00 0.00 0.00 84 1006.2
20260507150403 69 83 8.7 11.3 0.00 0.00 0.00 84 1006.3
20260507150303 69 77 8.7 11.3 0.00 0.00 0.00 84 1006.3
20260507150203 69 79 7.8 11.3 0.00 0.00 0.00 84 1006.3
20260507150004 69 75 7.0 9.6 0.00 0.00 0.00 84 1006.3
20260507145903 69 73 7.0 9.6 0.00 0.00 0.00 84 1006.6
20260507145803 70 71 7.0 9.6 0.00 0.00 0.00 84 1006.6
20260507145703 70 69 7.0 9.6 0.00 0.00 0.00 84 1006.6
20260507145503 69 73 7.8 11.3 0.00 0.00 0.00 84 1006.5
20260507145403 70 82 7.8 11.3 0.00 0.00 0.00 83 1006.4
20260507145306 70 87 7.8 11.3 0.00 0.00 0.00 84 1006.5
20260507145203 70 87 7.8 11.3 0.00 0.00 0.00 84 1006.5
20260507145103 69 86 7.8 11.3 0.00 0.00 0.00 84 1006.6
20260507145003 70 83 7.8 11.3 0.00 0.00 0.00 84 1006.4
20260507144903 69 83 7.8 11.3 0.00 0.00 0.00 84 1006.7
20260507144803 69 84 7.0 11.3 0.00 0.00 0.00 84 1006.6
20260507144703 69 94 7.0 11.3 0.00 0.00 0.00 84 1006.7
20260507144603 69 92 7.0 12.2 0.00 0.00 0.00 84 1006.7
20260507144503 69 95 7.0 12.2 0.00 0.00 0.00 84 1006.6
20260507144403 69 96 7.0 12.2 0.00 0.00 0.00 83 1006.6
20260507144303 70 93 7.0 12.2 0.00 0.00 0.00 84 1006.5
20260507144203 69 92 7.0 12.2 0.00 0.00 0.00 84 1006.6
20260507144103 69 91 7.0 12.2 0.00 0.00 0.00 84 1006.5
20260507144003 69 92 7.8 12.2 0.00 0.00 0.00 84 1006.6
20260507143903 69 92 7.8 12.2 0.00 0.00 0.00 84 1006.6
20260507143803 70 87 7.8 12.2 0.00 0.00 0.00 84 1006.8
20260507143703 70 84 7.8 12.2 0.00 0.00 0.00 84 1006.7
20260507143603 69 86 7.8 12.2 0.00 0.00 0.00 84 1006.5
20260507143503 70 85 7.0 9.6 0.00 0.00 0.00 84 1006.4
20260507143403 70 75 6.1 9.6 0.00 0.00 0.00 84 1006.3
20260507143303 70 75 6.1 9.6 0.00 0.00 0.00 84 1006.3
20260507143203 70 81 6.1 9.6 0.00 0.00 0.00 84 1006.3
20260507143103 70 82 7.0 9.6 0.00 0.00 0.00 84 1006.2
20260507143003 70 88 7.0 11.3 0.00 0.00 0.00 84 1006.1
20260507142903 70 91 7.0 11.3 0.00 0.00 0.00 83 1006.1
20260507142803 71 98 7.8 11.3 0.00 0.00 0.00 83 1006.0
20260507142703 71 102 7.8 11.3 0.00 0.00 0.00 83 1006.1
20260507142603 70 100 8.7 12.2 0.00 0.00 0.00 84 1006.1
20260507142503 70 98 8.7 12.2 0.00 0.00 0.00 83 1005.9
20260507142403 69 99 9.6 12.2 0.00 0.00 0.00 84 1005.9
20260507142306 69 99 10.4 13.0 0.00 0.00 0.00 84 1005.8
20260507142203 69 100 10.4 13.0 0.00 0.00 0.00 84 1006.0
20260507142103 69 103 10.4 13.0 0.00 0.00 0.00 83 1005.9
20260507142003 68 102 9.6 13.0 0.00 0.00 0.00 84 1005.8
20260507141903 69 96 9.6 13.0 0.00 0.00 0.00 84 1006.0
20260507141803 69 89 9.6 13.0 0.00 0.00 0.00 84 1006.0
20260507141703 69 85 9.6 13.0 0.00 0.00 0.00 84 1006.0
20260507141603 70 85 9.6 13.0 0.00 0.00 0.00 83 1006.2
20260507141503 70 90 9.6 13.0 0.00 0.00 0.00 84 1005.9
20260507141403 69 87 9.6 13.0 0.00 0.00 0.00 84 1006.0
20260507141303 69 84 9.6 13.0 0.00 0.00 0.00 84 1006.1
20260507141203 70 78 9.6 12.2 0.00 0.00 0.00 84 1006.2
20260507141103 69 74 9.6 12.2 0.00 0.00 0.00 84 1006.1
20260507141003 69 73 8.7 12.2 0.00 0.00 0.00 84 1006.0
20260507140903 69 74 8.7 12.2 0.00 0.00 0.00 84 1006.1
20260507140803 69 81 8.7 11.3 0.00 0.00 0.00 84 1006.3
20260507140703 69 77 8.7 14.8 0.00 0.00 0.00 84 1006.2
20260507140603 70 70 8.7 14.8 0.00 0.00 0.00 84 1006.1
20260507140503 70 65 8.7 14.8 0.00 0.00 0.00 84 1006.0
20260507140403 69 61 7.8 14.8 0.00 0.00 0.00 84 1006.1
20260507140303 69 60 7.8 14.8 0.00 0.00 0.00 84 1005.9
20260507140203 70 63 7.8 14.8 0.00 0.00 0.00 84 1006.1
20260507140103 70 60 7.8 14.8 0.00 0.00 0.00 84 1006.0
20260507140004 70 62 7.8 14.8 0.00 0.00 0.00 84 1006.0
20260507135903 69 67 7.8 14.8 0.00 0.00 0.00 84 1006.0
20260507135804 70 74 7.8 14.8 0.00 0.00 0.00 84 1006.2
20260507135703 69 76 7.8 14.8 0.00 0.00 0.00 84 1006.1
20260507135603 70 79 7.8 9.6 0.00 0.00 0.00 83 1006.0
20260507135503 70 82 7.8 9.6 0.00 0.00 0.00 84 1006.1
20260507135403 70 87 7.8 9.6 0.00 0.00 0.00 84 1006.2
20260507135306 70 89 7.8 9.6 0.00 0.00 0.00 84 1006.1
20260507135203 69 89 7.8 9.6 0.00 0.00 0.00 84 1006.2
20260507135103 69 95 7.8 9.6 0.00 0.00 0.00 84 1006.2
20260507135003 69 94 7.8 9.6 0.00 0.00 0.00 84 1006.0
20260507134903 69 93 7.8 9.6 0.00 0.00 0.00 84 1006.1
20260507134803 69 91 7.8 9.6 0.00 0.00 0.00 84 1006.2
20260507134703 69 94 7.0 9.6 0.00 0.00 0.00 84 1006.1
20260507134603 69 100 6.1 9.6 0.00 0.00 0.00 84 1006.3
20260507134503 69 101 7.0 9.6 0.00 0.00 0.00 84 1006.3
20260507134403 70 104 7.0 9.6 0.00 0.00 0.00 84 1006.3
20260507134303 70 104 7.0 11.3 0.00 0.00 0.00 84 1006.1
20260507134203 69 101 7.0 11.3 0.00 0.00 0.00 84 1006.3
20260507134103 69 98 7.0 11.3 0.00 0.00 0.00 84 1006.1
20260507134003 69 94 7.8 11.3 0.00 0.00 0.00 84 1006.1
20260507133903 70 89 7.8 11.3 0.00 0.00 0.00 84 1006.3
20260507133803 70 89 7.8 11.3 0.00 0.00 0.00 83 1006.1
20260507133703 70 90 8.7 11.3 0.00 0.00 0.00 84 1006.1
20260507133603 69 91 8.7 11.3 0.00 0.00 0.00 84 1006.1
20260507133503 69 94 9.6 11.3 0.00 0.00 0.00 84 1006.0
20260507133403 69 92 9.6 12.2 0.00 0.00 0.00 84 1006.2
20260507133303 69 91 8.7 12.2 0.00 0.00 0.00 84 1006.2
20260507133203 69 96 9.6 12.2 0.00 0.00 0.00 84 1006.1
20260507133103 69 97 9.6 12.2 0.00 0.00 0.00 84 1006.3
20260507133003 69 97 9.6 12.2 0.00 0.00 0.00 84 1006.1
20260507132903 70 98 9.6 12.2 0.00 0.00 0.00 84 1006.5
20260507132803 69 99 9.6 12.2 0.00 0.00 0.00 84 1006.4
20260507132703 69 93 9.6 12.2 0.00 0.00 0.00 84 1006.4
20260507132603 69 94 9.6 12.2 0.00 0.00 0.00 84 1006.2
20260507132503 69 92 9.6 12.2 0.00 0.00 0.00 84 1006.4
20260507132403 70 92 8.7 11.3 0.00 0.00 0.00 84 1006.5
20260507132307 70 87 8.7 11.3 0.00 0.00 0.00 84 1006.3
20260507132203 69 84 9.6 11.3 0.00 0.00 0.00 84 1006.2
20260507132103 70 80 9.6 12.2 0.00 0.00 0.00 84 1006.5
20260507132003 70 82 9.6 12.2 0.00 0.00 0.00 84 1006.5
20260507131903 70 84 9.6 12.2 0.00 0.00 0.00 83 1006.4
20260507131803 70 91 9.6 12.2 0.00 0.00 0.00 84 1006.5
20260507131703 69 97 9.6 12.2 0.00 0.00 0.00 84 1006.3
20260507131603 70 99 9.6 12.2 0.00 0.00 0.00 84 1006.2
20260507131503 69 97 9.6 12.2 0.00 0.00 0.00 84 1006.4
20260507131403 69 93 9.6 12.2 0.00 0.00 0.00 84 1006.2
20260507131303 69 96 9.6 12.2 0.00 0.00 0.00 84 1006.3
20260507131203 69 96 9.6 12.2 0.00 0.00 0.00 84 1006.2
20260507131103 69 99 9.6 12.2 0.00 0.00 0.00 84 1006.3
20260507131003 69 103 8.7 12.2 0.00 0.00 0.00 84 1006.2
20260507130903 69 104 9.6 11.3 0.00 0.00 0.00 84 1006.4
20260507130803 69 101 9.6 11.3 0.00 0.00 0.00 84 1006.2
20260507130703 69 102 9.6 13.0 0.00 0.00 0.00 84 1006.4
20260507130603 69 102 10.4 15.6 0.00 0.00 0.00 84 1006.4
20260507130503 69 100 11.3 15.6 0.00 0.00 0.00 84 1006.1
20260507130403 69 102 11.3 15.6 0.00 0.00 0.00 84 1006.3
20260507130303 69 103 11.3 15.6 0.00 0.00 0.00 84 1006.6
20260507130203 69 103 11.3 15.6 0.00 0.00 0.00 84 1006.3
20260507130103 69 105 11.3 15.6 0.00 0.00 0.00 84 1006.5
20260507130004 69 101 11.3 15.6 0.00 0.00 0.00 84 1006.4
20260507125903 69 102 10.4 15.6 0.00 0.00 0.00 84 1006.3
20260507125803 69 98 10.4 15.6 0.00 0.00 0.00 84 1006.3
20260507125703 68 96 10.4 15.6 0.00 0.00 0.00 84 1006.3
20260507125603 68 94 9.6 15.6 0.00 0.00 0.00 84 1006.4
20260507125503 69 95 9.6 11.3 0.00 0.00 0.00 84 1006.4
20260507125403 69 100 9.6 13.9 0.00 0.00 0.00 84 1006.3
20260507125306 69 99 9.6 13.9 0.00 0.00 0.00 84 1006.5
20260507125203 69 93 10.4 14.8 0.00 0.00 0.00 84 1006.5
20260507125103 69 90 10.4 14.8 0.00 0.00 0.00 84 1006.6
20260507125003 69 87 10.4 14.8 0.00 0.00 0.00 84 1006.4
20260507124903 69 87 10.4 14.8 0.00 0.00 0.00 84 1006.5
20260507124803 69 88 9.6 14.8 0.00 0.00 0.00 84 1006.4
20260507124703 69 89 9.6 14.8 0.00 0.00 0.00 84 1006.4
20260507124603 69 86 10.4 14.8 0.00 0.00 0.00 84 1006.7
20260507124503 68 87 10.4 14.8 0.00 0.00 0.00 84 1006.5
20260507124403 69 85 9.6 14.8 0.00 0.00 0.00 84 1006.6
20260507124303 68 83 10.4 14.8 0.00 0.00 0.00 84 1006.6
20260507124203 68 90 9.6 14.8 0.00 0.00 0.00 84 1006.6
20260507124103 69 96 9.6 13.0 0.00 0.00 0.00 84 1006.6
20260507124003 69 103 9.6 13.0 0.00 0.00 0.00 84 1006.5
20260507123903 69 105 10.4 13.0 0.00 0.00 0.00 84 1006.3
20260507123803 69 100 10.4 13.9 0.00 0.00 0.00 84 1006.4
20260507123703 69 99 11.3 13.9 0.00 0.00 0.00 84 1006.5
20260507123603 69 101 12.2 15.6 0.00 0.00 0.00 84 1006.4
20260507123503 68 103 12.2 15.6 0.00 0.00 0.00 84 1006.5
20260507123403 68 102 12.2 15.6 0.00 0.00 0.00 84 1006.6
20260507123303 68 104 11.3 15.6 0.00 0.00 0.00 84 1006.7
20260507123203 68 106 11.3 15.6 0.00 0.00 0.00 84 1006.7
20260507123103 68 107 11.3 15.6 0.00 0.00 0.00 84 1006.6
20260507123003 69 100 11.3 15.6 0.00 0.00 0.00 84 1006.5
20260507122903 69 96 11.3 15.6 0.00 0.00 0.00 84 1006.6
20260507122803 68 100 11.3 15.6 0.00 0.00 0.00 84 1006.5
20260507122705 69 95 11.3 15.6 0.00 0.00 0.00 84 1006.5
20260507122603 69 86 11.3 15.6 0.00 0.00 0.00 84 1006.4
20260507122503 69 82 10.4 13.9 0.00 0.00 0.00 84 1006.2
20260507122403 69 74 10.4 13.9 0.00 0.00 0.00 84 1006.4
20260507122306 69 66 10.4 13.9 0.00 0.00 0.00 84 1006.3
20260507122203 69 58 9.6 13.9 0.00 0.00 0.00 84 1006.3
20260507122103 69 51 9.6 13.9 0.00 0.00 0.00 84 1006.7
20260507122004 69 52 9.6 13.9 0.00 0.00 0.00 84 1006.6
20260507121903 69 54 8.7 13.9 0.00 0.00 0.00 84 1006.5
20260507121803 69 58 8.7 13.9 0.00 0.00 0.00 84 1006.8
20260507121703 69 65 8.7 13.9 0.00 0.00 0.00 84 1006.6
20260507121603 69 75 7.8 11.3 0.00 0.00 0.00 84 1006.6
20260507121503 69 76 7.8 9.6 0.00 0.00 0.00 84 1006.6
20260507121403 69 86 7.8 9.6 0.00 0.00 0.00 84 1006.6
20260507121303 69 91 7.8 9.6 0.00 0.00 0.00 84 1006.5
20260507121203 69 91 8.7 9.6 0.00 0.00 0.00 84 1006.6
20260507121103 69 93 8.7 9.6 0.00 0.00 0.00 84 1006.5
20260507121003 69 89 8.7 13.9 0.00 0.00 0.00 84 1006.8
20260507120903 69 88 9.6 13.9 0.00 0.00 0.00 84 1006.6
20260507120803 69 88 9.6 13.9 0.00 0.00 0.00 84 1006.5
20260507120703 69 92 9.6 13.9 0.00 0.00 0.00 84 1006.6
20260507120603 69 93 10.4 13.9 0.00 0.00 0.00 84 1006.6
20260507120503 69 96 10.4 13.9 0.00 0.00 0.00 84 1006.6
20260507120403 69 87 10.4 13.9 0.00 0.00 0.00 84 1006.8
20260507120303 69 76 10.4 13.9 0.00 0.00 0.00 84 1006.7
20260507120203 69 83 10.4 13.9 0.00 0.00 0.00 84 1006.8
20260507120103 69 81 10.4 13.9 0.00 0.00 0.00 84 1006.8
20260507120004 68 77 10.4 13.9 0.00 0.00 0.00 84 1006.8
20260507115903 68 75 9.6 13.9 0.00 0.00 0.00 84 1006.8
20260507115803 69 60 9.6 13.0 0.00 0.00 0.00 84 1006.7
20260507115703 69 62 9.6 12.2 0.00 0.00 0.00 84 1006.7
20260507115603 69 74 9.6 12.2 0.00 0.00 0.00 84 1006.5
20260507115503 69 71 9.6 12.2 0.00 0.00 0.00 84 1006.7
20260507115403 69 77 9.6 13.9 0.00 0.00 0.00 84 1006.4
20260507115306 69 85 9.6 13.9 0.00 0.00 0.00 84 1006.6
20260507115103 69 86 9.6 13.9 0.00 0.00 0.00 84 1006.6
20260507115003 69 91 9.6 13.9 0.00 0.00 0.00 84 1006.5
20260507114903 69 90 9.6 13.9 0.00 0.00 0.00 84 1006.7
20260507114803 68 92 9.6 13.9 0.00 0.00 0.00 84 1006.7
20260507114703 69 88 9.6 13.9 0.00 0.00 0.00 84 1006.4
20260507114603 69 85 10.4 13.9 0.00 0.00 0.00 84 1006.5
20260507114503 69 81 10.4 13.9 0.00 0.00 0.00 84 1006.5
20260507114403 69 74 11.3 13.9 0.00 0.00 0.00 84 1006.5
20260507114303 69 68 10.4 13.0 0.00 0.00 0.00 84 1006.3
20260507114203 69 69 10.4 13.0 0.00 0.00 0.00 84 1006.8
20260507114103 69 69 10.4 13.0 0.00 0.00 0.00 84 1006.6
20260507114003 69 66 10.4 13.0 0.00 0.00 0.00 84 1006.7
20260507113903 69 64 10.4 13.0 0.00 0.00 0.00 84 1006.6
20260507113803 69 62 10.4 13.0 0.00 0.00 0.00 84 1006.5
20260507113703 69 63 10.4 13.0 0.00 0.00 0.00 84 1006.7
20260507113603 69 64 10.4 13.0 0.00 0.00 0.00 84 1006.8
20260507113503 69 67 9.6 13.0 0.00 0.00 0.00 84 1006.6
20260507113403 69 69 9.6 12.2 0.00 0.00 0.00 84 1006.4
20260507113303 70 72 9.6 12.2 0.00 0.00 0.00 83 1006.5
20260507113203 69 72 9.6 12.2 0.00 0.00 0.00 84 1006.5
20260507113103 69 72 9.6 13.0 0.00 0.00 0.00 84 1006.4
20260507113004 69 79 9.6 13.0 0.00 0.00 0.00 84 1006.4
20260507112903 69 82 9.6 13.0 0.00 0.00 0.00 83 1006.7
20260507112803 70 85 9.6 13.9 0.00 0.00 0.00 83 1006.5
20260507112703 69 85 10.4 13.9 0.00 0.00 0.00 83 1006.8
20260507112603 70 85 11.3 14.8 0.00 0.00 0.00 84 1006.6
20260507112503 70 85 11.3 14.8 0.00 0.00 0.00 84 1006.5
20260507112403 70 89 11.3 14.8 0.00 0.00 0.00 83 1006.6
20260507112306 69 94 11.3 14.8 0.00 0.00 0.00 83 1006.6
20260507112203 69 95 11.3 14.8 0.00 0.00 0.00 83 1006.6
20260507112103 70 100 11.3 14.8 0.00 0.00 0.00 84 1006.8
20260507112003 70 99 11.3 15.6 0.00 0.00 0.00 83 1006.6
20260507111904 69 96 11.3 15.6 0.00 0.00 0.00 83 1006.5
20260507111803 69 95 11.3 15.6 0.00 0.00 0.00 83 1006.8
20260507111703 69 89 11.3 15.6 0.00 0.00 0.00 83 1006.7
20260507111603 70 89 11.3 18.2 0.00 0.00 0.00 83 1006.6
20260507111504 70 89 12.2 18.2 0.00 0.00 0.00 83 1006.7
20260507111403 70 87 12.2 18.2 0.00 0.00 0.00 83 1006.5
20260507111303 70 85 13.0 18.2 0.00 0.00 0.00 83 1006.6
20260507111203 70 81 13.0 18.2 0.00 0.00 0.00 83 1006.5
20260507111103 70 74 12.2 18.2 0.00 0.00 0.00 83 1006.4
20260507111003 70 76 12.2 18.2 0.00 0.00 0.00 83 1006.4
20260507110903 70 79 12.2 18.2 0.00 0.00 0.00 83 1006.4
20260507110803 70 81 13.0 18.2 0.00 0.00 0.00 83 1006.5
20260507110703 70 86 13.0 18.2 0.00 0.00 0.00 83 1006.4
20260507110603 70 86 13.0 18.2 0.00 0.00 0.00 83 1006.3
20260507110503 70 86 12.2 15.6 0.00 0.00 0.00 83 1006.3
20260507110403 70 89 12.2 15.6 0.00 0.00 0.00 83 1006.3
20260507110303 70 93 12.2 15.6 0.00 0.00 0.00 83 1006.3
20260507110203 70 98 12.2 15.6 0.00 0.00 0.00 83 1006.4
20260507110103 70 99 13.0 15.6 0.00 0.00 0.00 83 1006.4
20260507110003 69 99 12.2 15.6 0.00 0.00 0.00 83 1006.5
20260507105903 69 100 12.2 15.6 0.00 0.00 0.00 83 1006.3
20260507105803 70 104 12.2 14.8 0.00 0.00 0.00 83 1006.2
20260507105703 71 105 12.2 15.6 0.00 0.00 0.00 82 1006.4
20260507105603 71 107 13.0 15.6 0.00 0.00 0.00 83 1006.5
20260507105503 71 110 13.9 19.1 0.00 0.00 0.00 83 1006.3
20260507105403 70 108 13.0 19.1 0.00 0.00 0.00 83 1006.0
20260507105306 71 106 13.0 19.1 0.00 0.00 0.00 83 1006.4
20260507105203 70 102 13.0 19.1 0.00 0.00 0.00 83 1006.3
20260507105103 71 102 13.9 19.1 0.00 0.00 0.00 83 1006.2
20260507105003 70 101 13.0 19.1 0.00 0.00 0.00 83 1006.3
20260507104903 70 104 13.0 19.1 0.00 0.00 0.00 83 1006.3
20260507104803 70 106 13.0 19.1 0.00 0.00 0.00 83 1006.4
20260507104703 70 108 13.0 19.1 0.00 0.00 0.00 83 1006.6
20260507104603 70 106 13.0 19.1 0.00 0.00 0.00 83 1006.5
20260507104503 70 106 13.0 19.1 0.00 0.00 0.00 83 1006.4
20260507104403 70 105 13.9 19.1 0.00 0.00 0.00 83 1006.4
20260507104303 70 103 13.9 19.1 0.00 0.00 0.00 83 1006.3
20260507104203 71 102 13.9 19.1 0.00 0.00 0.00 82 1006.1
20260507104103 72 105 13.9 19.1 0.00 0.00 0.00 82 1006.2
20260507104003 70 107 13.9 19.1 0.00 0.00 0.00 82 1006.4
20260507103903 70 104 14.8 19.1 0.00 0.00 0.00 82 1006.7
20260507103803 70 104 15.6 20.9 0.00 0.00 0.00 83 1006.5
20260507103703 70 104 15.6 20.9 0.00 0.00 0.00 82 1006.8
20260507103603 70 101 15.6 20.9 0.00 0.00 0.00 82 1006.6
20260507103503 70 99 15.6 20.9 0.00 0.00 0.00 82 1006.7
20260507103403 70 96 14.8 20.9 0.00 0.00 0.00 83 1006.7
20260507103303 70 98 13.9 20.9 0.00 0.00 0.00 82 1006.8
20260507103203 70 99 13.9 20.9 0.00 0.00 0.00 82 1006.4
20260507103103 70 99 13.9 20.9 0.00 0.00 0.00 82 1006.4
20260507103003 70 98 13.9 20.9 0.00 0.00 0.00 82 1006.5
20260507102903 70 99 13.9 20.9 0.00 0.00 0.00 82 1006.6
20260507102803 70 94 13.9 20.9 0.00 0.00 0.00 82 1006.9
20260507102703 71 93 13.9 19.1 0.00 0.00 0.00 81 1006.9
20260507102603 71 95 13.9 19.1 0.00 0.00 0.00 82 1006.7
20260507102503 70 96 13.9 19.1 0.00 0.00 0.00 82 1006.7
20260507102403 70 96 14.8 19.1 0.00 0.00 0.00 82 1006.5
20260507102306 70 97 14.8 19.1 0.00 0.00 0.00 82 1006.4
20260507102203 70 96 15.6 23.5 0.00 0.00 0.00 82 1006.6
20260507102103 71 97 16.5 23.5 0.00 0.00 0.00 81 1006.4
20260507102003 70 98 16.5 23.5 0.00 0.00 0.00 82 1006.5
20260507101903 71 96 16.5 23.5 0.00 0.00 0.00 82 1006.4
20260507101803 70 99 16.5 23.5 0.00 0.00 0.00 82 1006.4
20260507101703 70 96 16.5 23.5 0.00 0.00 0.00 82 1006.5
20260507101603 70 98 16.5 23.5 0.00 0.00 0.00 82 1006.3
20260507101503 70 95 16.5 23.5 0.00 0.00 0.00 82 1006.5
20260507101403 70 98 16.5 23.5 0.00 0.00 0.00 82 1006.5
20260507101303 70 97 16.5 23.5 0.00 0.00 0.00 81 1006.4
20260507101203 70 95 15.6 21.7 0.00 0.00 0.00 81 1006.3
20260507101103 71 90 14.8 21.7 0.00 0.00 0.00 81 1006.4
20260507101003 70 90 15.6 21.7 0.00 0.00 0.00 82 1006.2
20260507100903 70 92 15.6 21.7 0.00 0.00 0.00 82 1006.3
20260507100803 70 88 14.8 19.1 0.00 0.00 0.00 81 1006.3
20260507100703 70 91 14.8 19.1 0.00 0.00 0.00 81 1006.3
20260507100603 71 94 15.6 19.1 0.00 0.00 0.00 81 1006.4
20260507100503 70 97 14.8 19.1 0.00 0.00 0.00 82 1006.4
20260507100403 70 99 14.8 19.1 0.00 0.00 0.00 82 1006.3
20260507100303 70 95 14.8 19.1 0.00 0.00 0.00 81 1006.3
20260507100203 71 98 14.8 19.1 0.00 0.00 0.00 81 1006.4
20260507100103 70 99 14.8 19.1 0.00 0.00 0.00 82 1006.2
20260507100004 70 104 15.6 19.1 0.00 0.00 0.00 82 1006.3
20260507095903 71 101 15.6 19.1 0.00 0.00 0.00 81 1006.3
20260507095803 70 105 15.6 19.1 0.00 0.00 0.00 82 1006.3
20260507095703 70 109 15.6 19.1 0.00 0.00 0.00 81 1006.2
20260507095603 71 108 14.8 18.2 0.00 0.00 0.00 81 1006.2
20260507095503 70 107 14.8 18.2 0.00 0.00 0.00 82 1006.4
20260507095403 70 101 14.8 18.2 0.00 0.00 0.00 81 1006.3
20260507095305 70 103 14.8 18.2 0.00 0.00 0.00 81 1006.5
20260507095203 69 102 14.8 18.2 0.00 0.00 0.00 82 1006.5
20260507095103 70 103 14.8 20.0 0.00 0.00 0.00 82 1006.7
20260507095003 70 103 14.8 20.0 0.00 0.00 0.00 81 1006.6
20260507094903 70 103 13.9 20.0 0.00 0.00 0.00 81 1006.6
20260507094803 71 98 14.8 20.0 0.00 0.00 0.00 81 1006.4
20260507094703 71 93 14.8 20.0 0.00 0.00 0.00 81 1006.7
20260507094603 71 95 14.8 20.0 0.00 0.00 0.00 81 1006.6
20260507094503 71 93 14.8 20.0 0.00 0.00 0.00 81 1006.5
20260507094403 70 98 14.8 20.0 0.00 0.00 0.00 82 1006.7
20260507094303 70 101 14.8 20.0 0.00 0.00 0.00 81 1006.7
20260507094203 70 107 15.6 20.0 0.00 0.00 0.00 80 1006.7
20260507094103 70 110 15.6 20.0 0.00 0.00 0.00 80 1006.7
20260507094003 70 109 15.6 20.0 0.00 0.00 0.00 80 1006.4
20260507093903 70 109 15.6 20.0 0.00 0.00 0.00 80 1006.6
20260507093803 70 113 15.6 20.0 0.00 0.00 0.00 80 1006.6
20260507093703 71 113 15.6 20.0 0.00 0.00 0.00 79 1006.4
20260507093603 71 112 15.6 20.0 0.00 0.00 0.00 80 1006.5
20260507093503 70 113 16.5 20.0 0.00 0.00 0.00 80 1006.4
20260507093403 70 109 16.5 20.0 0.00 0.00 0.00 80 1006.6
20260507093303 70 105 15.6 20.0 0.00 0.00 0.00 80 1006.7
20260507093203 70 100 14.8 20.0 0.00 0.00 0.00 80 1006.6
20260507093103 70 90 14.8 17.4 0.00 0.00 0.00 80 1006.4
20260507093003 70 90 14.8 21.7 0.00 0.00 0.00 81 1006.6
20260507092903 70 90 14.8 21.7 0.00 0.00 0.00 80 1006.6
20260507092803 70 86 14.8 21.7 0.00 0.00 0.00 81 1006.6
20260507092703 71 84 14.8 21.7 0.00 0.00 0.00 80 1006.6
20260507092603 71 83 13.9 21.7 0.00 0.00 0.00 80 1006.5
20260507092504 71 85 14.8 21.7 0.00 0.00 0.00 79 1006.5
20260507092403 71 91 14.8 21.7 0.00 0.00 0.00 80 1006.6
20260507092306 71 94 14.8 21.7 0.00 0.00 0.00 80 1006.3
20260507092203 71 94 14.8 21.7 0.00 0.00 0.00 80 1006.3
20260507092103 70 97 14.8 21.7 0.00 0.00 0.00 80 1006.3
20260507092003 70 95 14.8 21.7 0.00 0.00 0.00 80 1006.5
20260507091903 70 93 13.9 19.1 0.00 0.00 0.00 79 1006.6
20260507091803 71 97 13.9 19.1 0.00 0.00 0.00 80 1006.5
20260507091703 70 98 13.9 19.1 0.00 0.00 0.00 80 1006.5
20260507091603 70 96 13.9 19.1 0.00 0.00 0.00 79 1006.5
20260507091503 70 93 13.9 19.1 0.00 0.00 0.00 79 1006.5
20260507091403 70 92 13.0 17.4 0.00 0.00 0.00 79 1006.4
20260507091303 71 91 13.0 20.0 0.00 0.00 0.00 79 1006.5
20260507091203 71 91 13.0 20.0 0.00 0.00 0.00 79 1006.4
20260507091103 70 91 13.0 20.0 0.00 0.00 0.00 79 1006.4
20260507091003 71 97 13.9 20.0 0.00 0.00 0.00 79 1006.5
20260507090903 70 100 13.9 20.0 0.00 0.00 0.00 79 1006.3
20260507090803 71 98 13.0 20.0 0.00 0.00 0.00 80 1006.6
20260507090703 71 99 13.0 20.0 0.00 0.00 0.00 80 1006.5
20260507090604 71 105 13.9 20.0 0.00 0.00 0.00 79 1006.5
20260507090503 70 108 13.9 20.0 0.00 0.00 0.00 80 1006.4
20260507090403 70 106 13.9 20.0 0.00 0.00 0.00 80 1006.4
20260507090303 70 108 13.9 20.0 0.00 0.00 0.00 81 1006.7
20260507090203 70 112 13.9 18.2 0.00 0.00 0.00 81 1006.4
20260507090103 70 114 13.0 18.2 0.00 0.00 0.00 80 1006.4
20260507090005 70 110 13.0 18.2 0.00 0.00 0.00 81 1006.7
20260507085903 70 107 13.0 18.2 0.00 0.00 0.00 80 1006.7
20260507085803 70 113 13.0 18.2 0.00 0.00 0.00 80 1006.5
20260507085703 70 109 13.0 18.2 0.00 0.00 0.00 80 1006.5
20260507085603 70 105 12.2 18.2 0.00 0.00 0.00 81 1006.7
20260507085503 70 100 12.2 14.8 0.00 0.00 0.00 80 1006.5
20260507085403 70 103 12.2 18.2 0.00 0.00 0.00 80 1006.4
20260507085308 70 104 12.2 18.2 0.00 0.00 0.00 81 1006.4
20260507085203 70 96 12.2 18.2 0.00 0.00 0.00 80 1006.7
20260507085103 69 87 12.2 18.2 0.00 0.00 0.00 80 1006.5
20260507085003 70 86 12.2 18.2 0.00 0.00 0.00 80 1006.5
20260507084903 70 87 12.2 18.2 0.00 0.00 0.00 80 1006.4
20260507084803 70 83 12.2 18.2 0.00 0.00 0.00 80 1006.6
20260507084703 70 90 12.2 18.2 0.00 0.00 0.00 81 1006.6
20260507084603 70 88 13.0 18.2 0.00 0.00 0.00 81 1006.3
20260507084503 69 88 13.0 18.2 0.00 0.00 0.00 82 1006.3
20260507084403 69 89 13.0 18.2 0.00 0.00 0.00 82 1006.4
20260507084303 69 84 13.0 18.2 0.00 0.00 0.00 82 1006.5
20260507084203 69 85 13.0 18.2 0.00 0.00 0.00 82 1006.7
20260507084103 69 85 13.0 18.2 0.00 0.00 0.00 82 1006.5
20260507084003 69 84 13.0 18.2 0.00 0.00 0.00 82 1006.5
20260507083903 69 77 13.0 15.6 0.00 0.00 0.00 82 1006.5
20260507083803 69 79 13.0 17.4 0.00 0.00 0.00 82 1006.7
20260507083703 69 76 13.9 17.4 0.00 0.00 0.00 82 1006.6
20260507083603 69 71 13.9 17.4 0.00 0.00 0.00 82 1006.4
20260507083503 69 68 13.9 17.4 0.00 0.00 0.00 82 1006.3
20260507083403 68 68 13.9 17.4 0.00 0.00 0.00 83 1006.4
20260507083303 69 70 13.9 17.4 0.00 0.00 0.00 82 1006.6
20260507083203 69 75 13.9 17.4 0.00 0.00 0.00 82 1006.4
20260507083103 69 74 14.8 17.4 0.00 0.00 0.00 83 1006.3
20260507083003 68 74 15.6 18.2 0.00 0.00 0.00 83 1006.4
20260507082903 68 80 15.6 18.2 0.00 0.00 0.00 83 1006.5
20260507082803 68 80 15.6 18.2 0.00 0.00 0.00 82 1006.1
20260507082703 68 80 15.6 18.2 0.00 0.00 0.00 83 1006.3
20260507082603 68 86 14.8 18.2 0.00 0.00 0.00 83 1006.3
20260507082503 68 91 14.8 18.2 0.00 0.00 0.00 83 1006.2
20260507082403 68 90 14.8 18.2 0.00 0.00 0.00 83 1006.5
20260507082306 68 87 13.9 18.2 0.00 0.00 0.00 83 1006.2
20260507082203 68 85 14.8 18.2 0.00 0.00 0.00 83 1006.4
20260507082103 68 88 13.9 18.2 0.00 0.00 0.00 83 1006.2
20260507082003 68 92 13.0 18.2 0.00 0.00 0.00 83 1006.3
20260507081903 68 89 12.2 17.4 0.00 0.00 0.00 83 1006.4
20260507081803 68 88 12.2 17.4 0.00 0.00 0.00 83 1006.4
20260507081703 68 87 12.2 17.4 0.00 0.00 0.00 83 1006.3
20260507081603 67 91 12.2 17.4 0.00 0.00 0.00 83 1006.4
20260507081503 68 91 12.2 17.4 0.00 0.00 0.00 83 1006.7
20260507081403 67 92 12.2 17.4 0.00 0.00 0.00 83 1006.4
20260507081303 67 90 11.3 17.4 0.00 0.00 0.00 83 1006.6
20260507081203 68 85 11.3 17.4 0.00 0.00 0.00 83 1006.6
20260507081103 68 77 12.2 23.5 0.00 0.00 0.00 83 1006.5
20260507081003 68 79 12.2 23.5 0.00 0.00 0.00 83 1006.4
20260507080903 67 83 13.0 23.5 0.00 0.00 0.00 83 1006.4
20260507080803 67 84 13.0 23.5 0.00 0.00 0.00 84 1006.4
20260507080703 67 86 13.0 23.5 0.00 0.00 0.00 84 1006.5
20260507080603 67 77 13.0 23.5 0.00 0.00 0.00 84 1006.5
20260507080503 67 74 13.0 23.5 0.00 0.00 0.00 84 1006.4
20260507080403 67 69 12.2 23.5 0.00 0.00 0.00 84 1006.5
20260507080303 67 74 13.0 23.5 0.00 0.00 0.00 84 1006.5
20260507080203 67 76 13.0 23.5 0.00 0.00 0.00 84 1006.6
20260507080103 67 77 12.2 23.5 0.00 0.00 0.00 84 1006.5
20260507080004 67 77 12.2 14.8 0.00 0.00 0.00 84 1006.6
20260507075903 67 64 12.2 14.8 0.00 0.00 0.00 84 1006.7
20260507075803 67 62 11.3 14.8 0.00 0.00 0.00 84 1006.6
20260507075703 67 63 11.3 14.8 0.00 0.00 0.00 84 1006.5
20260507075604 67 68 11.3 14.8 0.00 0.00 0.00 83 1006.6